Wetterdaten: Sonntag, 08.11.2009
Datum Zeit Temp. Innen Temp. Aussen UV X Diff Temp. Feuchte Inne Feuchte Auss Sonnenschein Luftdruck Regen ab 0,1 Wind Sonnenschein Windben
08.11.2009 00:00 14,2 C 6,2 C 0,0 UV-I 0,0 C 60 % 93 % 0 % 1000,1 hPa 0,0 l/m 0,7 km/h (0 Bft) 0 min 2,4 km/h (1 Bft)
08.11.2009 00:02 14,1 C 6,3 C 0,0 UV-I 0,0 C 60 % 93 % 0 % 1000,1 hPa 0,0 l/m 1,0 km/h (0 Bft) 0 min 2,6 km/h (1 Bft)
08.11.2009 00:04 14,2 C 6,3 C 0,0 UV-I 0,0 C 60 % 93 % 0 % 1000,1 hPa 0,0 l/m 1,0 km/h (0 Bft) 0 min 2,6 km/h (1 Bft)
08.11.2009 00:08 14,2 C 6,1 C 0,0 UV-I 0,0 C 60 % 93 % 0 % 1000,1 hPa 0,0 l/m 0,5 km/h (0 Bft) 0 min 2,6 km/h (1 Bft)
08.11.2009 00:12 14,2 C 6,1 C 0,0 UV-I 0,0 C 60 % 93 % 0 % 1000,1 hPa 0,0 l/m 0,2 km/h (0 Bft) 0 min 0,0 km/h (0 Bft)
08.11.2009 00:14 14,2 C 6,0 C 0,0 UV-I 0,0 C 59 % 93 % 0 % 1000,4 hPa 0,0 l/m 0,2 km/h (0 Bft) 0 min 3,6 km/h (1 Bft)
08.11.2009 00:16 14,1 C 6,1 C 0,0 UV-I 0,0 C 60 % 93 % 0 % 1000,4 hPa 0,0 l/m 0,2 km/h (0 Bft) 0 min 3,6 km/h (1 Bft)
08.11.2009 00:20 14,2 C 6,1 C 0,0 UV-I 0,0 C 60 % 93 % 0 % 1000,4 hPa 0,0 l/m 0,2 km/h (0 Bft) 0 min 0,0 km/h (0 Bft)
08.11.2009 00:22 14,1 C 6,0 C 0,0 UV-I 0,0 C 59 % 93 % 0 % 1000,4 hPa 0,0 l/m 0,2 km/h (0 Bft) 0 min 3,6 km/h (1 Bft)
08.11.2009 00:24 14,1 C 6,0 C 0,0 UV-I 0,0 C 59 % 93 % 0 % 1000,4 hPa 0,0 l/m 0,2 km/h (0 Bft) 0 min 0,0 km/h (0 Bft)
08.11.2009 00:30 14,2 C 5,9 C 0,0 UV-I 0,0 C 59 % 93 % 0 % 1000,4 hPa 0,0 l/m 0,0 km/h (0 Bft) 0 min 0,0 km/h (0 Bft)
08.11.2009 00:32 14,1 C 5,8 C 0,0 UV-I 0,0 C 59 % 93 % 0 % 1000,4 hPa 0,0 l/m 0,0 km/h (0 Bft) 0 min 0,0 km/h (0 Bft)
08.11.2009 00:34 14,1 C 5,9 C 0,0 UV-I 0,0 C 59 % 93 % 0 % 1000,4 hPa 0,0 l/m 0,0 km/h (0 Bft) 0 min 0,0 km/h (0 Bft)
08.11.2009 00:36 14,1 C 5,8 C 0,0 UV-I 0,0 C 59 % 93 % 0 % 1000,4 hPa 0,0 l/m 0,0 km/h (0 Bft) 0 min 0,0 km/h (0 Bft)
08.11.2009 00:38 14,1 C 5,7 C 0,0 UV-I 0,0 C 59 % 93 % 0 % 1000,4 hPa 0,0 l/m 0,0 km/h (0 Bft) 0 min 0,0 km/h (0 Bft)
08.11.2009 00:40 14,1 C 5,7 C 0,0 UV-I 0,0 C 59 % 93 % 0 % 1000,4 hPa 0,0 l/m 0,0 km/h (0 Bft) 0 min 0,0 km/h (0 Bft)
08.11.2009 00:42 14,1 C 5,6 C 0,0 UV-I 0,0 C 59 % 93 % 0 % 1000,4 hPa 0,0 l/m 0,0 km/h (0 Bft) 0 min 0,0 km/h (0 Bft)
08.11.2009 00:44 14,1 C 5,6 C 0,0 UV-I 0,0 C 59 % 93 % 0 % 1000,4 hPa 0,0 l/m 0,0 km/h (0 Bft) 0 min 0,0 km/h (0 Bft)
08.11.2009 00:46 14,1 C 5,6 C 0,0 UV-I 0,0 C 59 % 93 % 0 % 1000,4 hPa 0,0 l/m 0,0 km/h (0 Bft) 0 min 0,0 km/h (0 Bft)
08.11.2009 00:48 14,1 C 5,6 C 0,0 UV-I 0,0 C 59 % 93 % 0 % 1000,4 hPa 0,0 l/m 0,0 km/h (0 Bft) 0 min 0,0 km/h (0 Bft)
08.11.2009 00:50 14,1 C 5,5 C 0,0 UV-I 0,0 C 59 % 93 % 0 % 1000,4 hPa 0,0 l/m 0,0 km/h (0 Bft) 0 min 2,9 km/h (1 Bft)
08.11.2009 00:52 14,1 C 5,4 C 0,0 UV-I 0,0 C 59 % 93 % 0 % 1000,4 hPa 0,0 l/m 0,0 km/h (0 Bft) 0 min 2,9 km/h (1 Bft)
08.11.2009 00:54 14,1 C 5,5 C 0,0 UV-I 0,0 C 59 % 93 % 0 % 1000,5 hPa 0,0 l/m 0,0 km/h (0 Bft) 0 min 0,0 km/h (0 Bft)
08.11.2009 00:56 14,1 C 5,5 C 0,0 UV-I 0,0 C 59 % 93 % 0 % 1000,5 hPa 0,0 l/m 0,0 km/h (0 Bft) 0 min 2,6 km/h (1 Bft)
08.11.2009 00:58 14,1 C 5,3 C 0,0 UV-I 0,0 C 59 % 93 % 0 % 1000,5 hPa 0,0 l/m 0,0 km/h (0 Bft) 0 min 2,6 km/h (1 Bft)
08.11.2009 01:00 14,1 C 5,3 C 0,0 UV-I 0,0 C 59 % 93 % 0 % 1000,5 hPa 0,0 l/m 0,0 km/h (0 Bft) 0 min 0,0 km/h (0 Bft)
08.11.2009 01:04 14,1 C 5,2 C 0,0 UV-I 0,0 C 59 % 93 % 0 % 1000,5 hPa 0,0 l/m 0,0 km/h (0 Bft) 0 min 0,0 km/h (0 Bft)
08.11.2009 01:06 14,1 C 5,3 C 0,0 UV-I 0,0 C 59 % 93 % 0 % 1000,5 hPa 0,0 l/m 0,0 km/h (0 Bft) 0 min 0,0 km/h (0 Bft)
08.11.2009 01:10 14,1 C 5,1 C 0,0 UV-I 0,0 C 59 % 93 % 0 % 1000,5 hPa 0,0 l/m 0,0 km/h (0 Bft) 0 min 0,0 km/h (0 Bft)
08.11.2009 01:14 14,1 C 5,1 C 0,0 UV-I 0,0 C 58 % 93 % 0 % 1000,7 hPa 0,0 l/m 0,0 km/h (0 Bft) 0 min 0,0 km/h (0 Bft)
08.11.2009 01:16 13,9 C 5,1 C 0,0 UV-I 0,0 C 58 % 93 % 0 % 1000,7 hPa 0,0 l/m 0,0 km/h (0 Bft) 0 min 0,0 km/h (0 Bft)
08.11.2009 01:22 13,9 C 5,1 C 0,0 UV-I 0,0 C 58 % 93 % 0 % 1000,7 hPa 0,0 l/m 0,0 km/h (0 Bft) 0 min 0,0 km/h (0 Bft)
08.11.2009 01:24 13,9 C 5,1 C 0,0 UV-I 0,0 C 58 % 93 % 0 % 1000,7 hPa 0,0 l/m 0,0 km/h (0 Bft) 0 min 0,0 km/h (0 Bft)
08.11.2009 01:28 13,9 C 5,1 C 0,0 UV-I 0,0 C 58 % 93 % 0 % 1000,7 hPa 0,0 l/m 0,0 km/h (0 Bft) 0 min 0,0 km/h (0 Bft)
08.11.2009 01:30 14,0 C 5,1 C 0,0 UV-I 0,0 C 58 % 93 % 0 % 1000,7 hPa 0,0 l/m 0,0 km/h (0 Bft) 0 min 0,0 km/h (0 Bft)
08.11.2009 01:32 14,0 C 5,1 C 0,0 UV-I 0,0 C 58 % 93 % 0 % 1000,7 hPa 0,0 l/m 0,0 km/h (0 Bft) 0 min 0,0 km/h (0 Bft)
08.11.2009 01:34 14,0 C 4,9 C 0,0 UV-I 0,0 C 58 % 93 % 0 % 1000,6 hPa 0,0 l/m 0,0 km/h (0 Bft) 0 min 0,0 km/h (0 Bft)
08.11.2009 01:42 14,0 C 4,9 C 0,0 UV-I 0,0 C 58 % 93 % 0 % 1000,6 hPa 0,0 l/m 0,0 km/h (0 Bft) 0 min 0,0 km/h (0 Bft)
08.11.2009 01:44 14,0 C 4,9 C 0,0 UV-I 0,0 C 58 % 93 % 0 % 1000,6 hPa 0,0 l/m 0,0 km/h (0 Bft) 0 min 0,0 km/h (0 Bft)
08.11.2009 01:46 14,0 C 4,8 C 0,0 UV-I 0,0 C 58 % 93 % 0 % 1000,6 hPa 0,0 l/m 0,0 km/h (0 Bft) 0 min 0,0 km/h (0 Bft)
08.11.2009 01:48 14,0 C 4,8 C 0,0 UV-I 0,0 C 58 % 93 % 0 % 1000,6 hPa 0,0 l/m 0,0 km/h (0 Bft) 0 min 0,0 km/h (0 Bft)
08.11.2009 01:49 14,0 C 4,8 C 0,0 UV-I 0,0 C 58 % 93 % 0 % 1000,6 hPa 0,0 l/m 0,0 km/h (0 Bft) 0 min 0,0 km/h (0 Bft)
08.11.2009 01:54 14,0 C 4,7 C 0,0 UV-I 0,0 C 58 % 93 % 0 % 1000,6 hPa 0,0 l/m 0,0 km/h (0 Bft) 0 min 0,0 km/h (0 Bft)
08.11.2009 02:00 14,0 C 4,6 C 0,0 UV-I 0,0 C 58 % 93 % 0 % 1000,6 hPa 0,0 l/m 0,0 km/h (0 Bft) 0 min 0,0 km/h (0 Bft)
08.11.2009 02:02 14,0 C 4,6 C 0,0 UV-I 0,0 C 58 % 93 % 0 % 1000,6 hPa 0,0 l/m 0,0 km/h (0 Bft) 0 min 0,0 km/h (0 Bft)
08.11.2009 02:04 14,0 C 4,7 C 0,0 UV-I 0,0 C 58 % 93 % 0 % 1000,6 hPa 0,0 l/m 0,0 km/h (0 Bft) 0 min 2,4 km/h (1 Bft)
08.11.2009 02:06 14,0 C 4,7 C 0,0 UV-I 0,0 C 58 % 93 % 0 % 1000,6 hPa 0,0 l/m 0,0 km/h (0 Bft) 0 min 2,4 km/h (1 Bft)
08.11.2009 02:08 13,8 C 4,6 C 0,0 UV-I 0,0 C 58 % 93 % 0 % 1000,6 hPa 0,0 l/m 0,0 km/h (0 Bft) 0 min 0,0 km/h (0 Bft)
08.11.2009 02:10 13,8 C 4,5 C 0,0 UV-I 0,0 C 58 % 93 % 0 % 1000,6 hPa 0,0 l/m 0,0 km/h (0 Bft) 0 min 0,0 km/h (0 Bft)
08.11.2009 02:16 13,8 C 4,4 C 0,0 UV-I 0,0 C 58 % 93 % 0 % 1000,8 hPa 0,0 l/m 0,0 km/h (0 Bft) 0 min 0,0 km/h (0 Bft)
08.11.2009 02:18 13,9 C 4,5 C 0,0 UV-I 0,0 C 58 % 93 % 0 % 1000,8 hPa 0,0 l/m 0,0 km/h (0 Bft) 0 min 0,0 km/h (0 Bft)
08.11.2009 02:20 13,9 C 4,5 C 0,0 UV-I 0,0 C 58 % 93 % 0 % 1000,8 hPa 0,0 l/m 0,2 km/h (0 Bft) 0 min 0,0 km/h (0 Bft)
08.11.2009 02:22 13,9 C 4,4 C 0,0 UV-I 0,0 C 58 % 93 % 0 % 1000,8 hPa 0,0 l/m 0,0 km/h (0 Bft) 0 min 0,0 km/h (0 Bft)
08.11.2009 02:24 13,9 C 4,4 C 0,0 UV-I 0,0 C 58 % 93 % 0 % 1000,8 hPa 0,0 l/m 0,0 km/h (0 Bft) 0 min 0,0 km/h (0 Bft)
08.11.2009 02:28 13,9 C 4,3 C 0,0 UV-I 0,0 C 58 % 94 % 0 % 1000,8 hPa 0,0 l/m 0,0 km/h (0 Bft) 0 min 0,0 km/h (0 Bft)
08.11.2009 02:30 13,9 C 4,3 C 0,0 UV-I 0,0 C 58 % 93 % 0 % 1000,8 hPa 0,0 l/m 0,0 km/h (0 Bft) 0 min 0,0 km/h (0 Bft)
08.11.2009 02:32 13,8 C 4,3 C 0,0 UV-I 0,0 C 58 % 93 % 0 % 1000,8 hPa 0,0 l/m 0,0 km/h (0 Bft) 0 min 0,0 km/h (0 Bft)
08.11.2009 02:34 13,8 C 4,3 C 0,0 UV-I 0,0 C 58 % 94 % 0 % 1001,1 hPa 0,0 l/m 0,0 km/h (0 Bft) 0 min 0,0 km/h (0 Bft)
08.11.2009 02:38 13,9 C 4,3 C 0,0 UV-I 0,0 C 58 % 93 % 0 % 1001,1 hPa 0,0 l/m 0,0 km/h (0 Bft) 0 min 0,0 km/h (0 Bft)
08.11.2009 02:40 13,9 C 4,2 C 0,0 UV-I 0,0 C 58 % 94 % 0 % 1001,1 hPa 0,0 l/m 0,0 km/h (0 Bft) 0 min 0,0 km/h (0 Bft)
08.11.2009 02:42 13,9 C 4,1 C 0,0 UV-I 0,0 C 58 % 94 % 0 % 1001,1 hPa 0,0 l/m 0,0 km/h (0 Bft) 0 min 0,0 km/h (0 Bft)
08.11.2009 02:52 13,9 C 4,0 C 0,0 UV-I 0,0 C 58 % 94 % 0 % 1001,1 hPa 0,0 l/m 0,0 km/h (0 Bft) 0 min 0,0 km/h (0 Bft)
08.11.2009 02:58 13,8 C 4,1 C 0,0 UV-I 0,0 C 57 % 94 % 0 % 1001,1 hPa 0,0 l/m 0,0 km/h (0 Bft) 0 min 0,0 km/h (0 Bft)
08.11.2009 03:00 13,9 C 4,0 C 0,0 UV-I 0,0 C 58 % 94 % 0 % 1001,1 hPa 0,0 l/m 0,0 km/h (0 Bft) 0 min 0,0 km/h (0 Bft)
08.11.2009 03:02 13,9 C 4,0 C 0,0 UV-I 0,0 C 57 % 94 % 0 % 1001,1 hPa 0,0 l/m 0,0 km/h (0 Bft) 0 min 0,0 km/h (0 Bft)
08.11.2009 03:04 13,8 C 4,0 C 0,0 UV-I 0,0 C 57 % 94 % 0 % 1001,1 hPa 0,0 l/m 0,0 km/h (0 Bft) 0 min 0,0 km/h (0 Bft)
08.11.2009 03:06 13,9 C 4,0 C 0,0 UV-I 0,0 C 57 % 94 % 0 % 1001,1 hPa 0,0 l/m 0,0 km/h (0 Bft) 0 min 0,0 km/h (0 Bft)
08.11.2009 03:10 13,9 C 4,0 C 0,0 UV-I 0,0 C 57 % 94 % 0 % 1001,1 hPa 0,0 l/m 0,2 km/h (0 Bft) 0 min 2,4 km/h (1 Bft)
08.11.2009 03:14 13,9 C 4,0 C 0,0 UV-I 0,0 C 57 % 94 % 0 % 1001,2 hPa 0,0 l/m 0,5 km/h (0 Bft) 0 min 2,4 km/h (1 Bft)
08.11.2009 03:16 13,9 C 4,0 C 0,0 UV-I 0,0 C 57 % 94 % 0 % 1001,2 hPa 0,0 l/m 0,5 km/h (0 Bft) 0 min 0,0 km/h (0 Bft)
08.11.2009 03:18 13,9 C 3,9 C 0,0 UV-I 0,0 C 57 % 94 % 0 % 1001,2 hPa 0,0 l/m 0,2 km/h (0 Bft) 0 min 0,0 km/h (0 Bft)
08.11.2009 03:20 13,9 C 3,9 C 0,0 UV-I 0,0 C 57 % 94 % 0 % 1001,2 hPa 0,0 l/m 0,2 km/h (0 Bft) 0 min 0,0 km/h (0 Bft)
08.11.2009 03:22 13,9 C 3,9 C 0,0 UV-I 0,0 C 57 % 94 % 0 % 1001,2 hPa 0,0 l/m 0,2 km/h (0 Bft) 0 min 0,0 km/h (0 Bft)
08.11.2009 03:24 13,8 C 3,9 C 0,0 UV-I 0,0 C 57 % 94 % 0 % 1001,2 hPa 0,0 l/m 0,0 km/h (0 Bft) 0 min 2,4 km/h (1 Bft)
08.11.2009 03:26 13,8 C 3,9 C 0,0 UV-I 0,0 C 57 % 94 % 0 % 1001,2 hPa 0,0 l/m 0,2 km/h (0 Bft) 0 min 2,9 km/h (1 Bft)
08.11.2009 03:34 13,8 C 3,9 C 0,0 UV-I 0,0 C 57 % 94 % 0 % 1001,5 hPa 0,0 l/m 0,5 km/h (0 Bft) 0 min 3,8 km/h (1 Bft)
08.11.2009 03:36 13,8 C 3,8 C 0,0 UV-I 0,0 C 57 % 94 % 0 % 1001,5 hPa 0,0 l/m 0,5 km/h (0 Bft) 0 min 3,8 km/h (1 Bft)
08.11.2009 03:38 13,8 C 3,9 C 0,0 UV-I 0,0 C 57 % 94 % 0 % 1001,5 hPa 0,0 l/m 0,5 km/h (0 Bft) 0 min 3,6 km/h (1 Bft)
08.11.2009 03:40 13,8 C 3,9 C 0,0 UV-I 0,0 C 57 % 94 % 0 % 1001,5 hPa 0,0 l/m 0,7 km/h (0 Bft) 0 min 2,6 km/h (1 Bft)
08.11.2009 03:42 13,8 C 3,9 C 0,0 UV-I 0,0 C 57 % 94 % 0 % 1001,5 hPa 0,0 l/m 0,7 km/h (0 Bft) 0 min 0,0 km/h (0 Bft)
08.11.2009 03:44 13,8 C 3,8 C 0,0 UV-I 0,0 C 57 % 94 % 0 % 1001,5 hPa 0,0 l/m 0,7 km/h (0 Bft) 0 min 0,0 km/h (0 Bft)
08.11.2009 03:46 13,8 C 3,7 C 0,0 UV-I 0,0 C 57 % 94 % 0 % 1001,5 hPa 0,0 l/m 0,5 km/h (0 Bft) 0 min 0,0 km/h (0 Bft)
08.11.2009 03:50 13,8 C 3,7 C 0,0 UV-I 0,0 C 57 % 94 % 0 % 1001,5 hPa 0,0 l/m 0,0 km/h (0 Bft) 0 min 0,0 km/h (0 Bft)
08.11.2009 03:52 13,8 C 3,7 C 0,0 UV-I 0,0 C 57 % 94 % 0 % 1001,5 hPa 0,0 l/m 0,0 km/h (0 Bft) 0 min 0,0 km/h (0 Bft)
08.11.2009 03:54 13,8 C 3,7 C 0,0 UV-I 0,0 C 57 % 94 % 0 % 1001,3 hPa 0,0 l/m 0,0 km/h (0 Bft) 0 min 0,0 km/h (0 Bft)
08.11.2009 03:56 13,8 C 3,6 C 0,0 UV-I 0,0 C 57 % 94 % 0 % 1001,3 hPa 0,0 l/m 0,0 km/h (0 Bft) 0 min 0,0 km/h (0 Bft)
08.11.2009 03:58 13,8 C 3,6 C 0,0 UV-I 0,0 C 57 % 94 % 0 % 1001,3 hPa 0,0 l/m 0,0 km/h (0 Bft) 0 min 0,0 km/h (0 Bft)
08.11.2009 04:00 13,8 C 3,6 C 0,0 UV-I 0,0 C 57 % 94 % 0 % 1001,3 hPa 0,0 l/m 0,0 km/h (0 Bft) 0 min 0,0 km/h (0 Bft)
08.11.2009 04:02 13,8 C 3,7 C 0,0 UV-I 0,0 C 57 % 94 % 0 % 1001,3 hPa 0,0 l/m 0,0 km/h (0 Bft) 0 min 0,0 km/h (0 Bft)
08.11.2009 04:04 13,6 C 3,6 C 0,0 UV-I 0,0 C 57 % 94 % 0 % 1001,3 hPa 0,0 l/m 0,0 km/h (0 Bft) 0 min 0,0 km/h (0 Bft)
08.11.2009 04:06 13,8 C 3,5 C 0,0 UV-I 0,0 C 56 % 94 % 0 % 1001,3 hPa 0,0 l/m 0,0 km/h (0 Bft) 0 min 0,0 km/h (0 Bft)
08.11.2009 04:08 13,6 C 3,5 C 0,0 UV-I 0,0 C 56 % 94 % 0 % 1001,3 hPa 0,0 l/m 0,0 km/h (0 Bft) 0 min 0,0 km/h (0 Bft)
08.11.2009 04:09 13,8 C 3,5 C 0,0 UV-I 0,0 C 56 % 94 % 0 % 1001,3 hPa 0,0 l/m 0,0 km/h (0 Bft) 0 min 0,0 km/h (0 Bft)
08.11.2009 04:14 13,6 C 3,5 C 0,0 UV-I 0,0 C 56 % 94 % 0 % 1001,8 hPa 0,0 l/m 0,0 km/h (0 Bft) 0 min 0,0 km/h (0 Bft)
08.11.2009 04:19 13,7 C 3,3 C 0,0 UV-I 0,0 C 56 % 94 % 0 % 1001,8 hPa 0,0 l/m 0,0 km/h (0 Bft) 0 min 0,0 km/h (0 Bft)
08.11.2009 04:20 13,7 C 3,3 C 0,0 UV-I 0,0 C 56 % 94 % 0 % 1001,8 hPa 0,0 l/m 0,0 km/h (0 Bft) 0 min 0,0 km/h (0 Bft)
08.11.2009 04:22 13,7 C 3,3 C 0,0 UV-I 0,0 C 56 % 94 % 0 % 1001,8 hPa 0,0 l/m 0,0 km/h (0 Bft) 0 min 0,0 km/h (0 Bft)
08.11.2009 04:24 13,7 C 3,3 C 0,0 UV-I 0,0 C 56 % 94 % 0 % 1001,8 hPa 0,0 l/m 0,0 km/h (0 Bft) 0 min 0,0 km/h (0 Bft)
08.11.2009 04:26 13,6 C 3,3 C 0,0 UV-I 0,0 C 56 % 94 % 0 % 1001,8 hPa 0,0 l/m 0,0 km/h (0 Bft) 0 min 0,0 km/h (0 Bft)
08.11.2009 04:28 13,6 C 3,2 C 0,0 UV-I 0,0 C 56 % 94 % 0 % 1001,8 hPa 0,0 l/m 0,0 km/h (0 Bft) 0 min 0,0 km/h (0 Bft)
08.11.2009 04:30 13,6 C 3,2 C 0,0 UV-I 0,0 C 56 % 94 % 0 % 1001,8 hPa 0,0 l/m 0,0 km/h (0 Bft) 0 min 0,0 km/h (0 Bft)
08.11.2009 04:32 13,6 C 3,2 C 0,0 UV-I 0,0 C 56 % 94 % 0 % 1001,8 hPa 0,0 l/m 0,0 km/h (0 Bft) 0 min 0,0 km/h (0 Bft)
08.11.2009 04:34 13,6 C 3,3 C 0,0 UV-I 0,0 C 56 % 94 % 0 % 1001,2 hPa 0,0 l/m 0,0 km/h (0 Bft) 0 min 0,0 km/h (0 Bft)
08.11.2009 04:36 13,6 C 3,2 C 0,0 UV-I 0,0 C 56 % 94 % 0 % 1001,2 hPa 0,0 l/m 0,0 km/h (0 Bft) 0 min 0,0 km/h (0 Bft)
08.11.2009 04:38 13,6 C 3,2 C 0,0 UV-I 0,0 C 56 % 94 % 0 % 1001,2 hPa 0,0 l/m 0,0 km/h (0 Bft) 0 min 0,0 km/h (0 Bft)
08.11.2009 04:40 13,6 C 3,2 C 0,0 UV-I 0,0 C 56 % 94 % 0 % 1001,2 hPa 0,0 l/m 0,0 km/h (0 Bft) 0 min 0,0 km/h (0 Bft)
08.11.2009 04:42 13,6 C 3,1 C 0,0 UV-I 0,0 C 56 % 94 % 0 % 1001,2 hPa 0,0 l/m 0,0 km/h (0 Bft) 0 min 0,0 km/h (0 Bft)
08.11.2009 04:44 13,6 C 3,1 C 0,0 UV-I 0,0 C 56 % 94 % 0 % 1001,2 hPa 0,0 l/m 0,0 km/h (0 Bft) 0 min 0,0 km/h (0 Bft)
08.11.2009 04:46 13,6 C 3,1 C 0,0 UV-I 0,0 C 56 % 94 % 0 % 1001,2 hPa 0,0 l/m 0,0 km/h (0 Bft) 0 min 0,0 km/h (0 Bft)
08.11.2009 04:48 13,6 C 3,0 C 0,0 UV-I 0,0 C 56 % 94 % 0 % 1001,2 hPa 0,0 l/m 0,0 km/h (0 Bft) 0 min 0,0 km/h (0 Bft)
08.11.2009 04:50 13,6 C 3,0 C 0,0 UV-I 0,0 C 56 % 94 % 0 % 1001,2 hPa 0,0 l/m 0,0 km/h (0 Bft) 0 min 0,0 km/h (0 Bft)
08.11.2009 04:52 13,4 C 2,9 C 0,0 UV-I 0,0 C 56 % 94 % 0 % 1001,2 hPa 0,0 l/m 0,0 km/h (0 Bft) 0 min 0,0 km/h (0 Bft)
08.11.2009 04:54 13,6 C 2,9 C 0,0 UV-I 0,0 C 56 % 94 % 0 % 1001,4 hPa 0,0 l/m 0,0 km/h (0 Bft) 0 min 0,0 km/h (0 Bft)
08.11.2009 04:56 13,4 C 2,8 C 0,0 UV-I 0,0 C 56 % 94 % 0 % 1001,4 hPa 0,0 l/m 0,0 km/h (0 Bft) 0 min 0,0 km/h (0 Bft)
08.11.2009 04:58 13,4 C 2,8 C 0,0 UV-I 0,0 C 56 % 94 % 0 % 1001,4 hPa 0,0 l/m 0,0 km/h (0 Bft) 0 min 0,0 km/h (0 Bft)
08.11.2009 05:00 13,4 C 2,9 C 0,0 UV-I 0,0 C 56 % 94 % 0 % 1001,4 hPa 0,0 l/m 0,0 km/h (0 Bft) 0 min 0,0 km/h (0 Bft)
08.11.2009 05:02 13,4 C 2,8 C 0,0 UV-I 0,0 C 56 % 94 % 0 % 1001,4 hPa 0,0 l/m 0,0 km/h (0 Bft) 0 min 0,0 km/h (0 Bft)
08.11.2009 05:04 13,5 C 2,8 C 0,0 UV-I 0,0 C 56 % 94 % 0 % 1001,4 hPa 0,0 l/m 0,0 km/h (0 Bft) 0 min 0,0 km/h (0 Bft)
08.11.2009 05:06 13,4 C 2,8 C 0,0 UV-I 0,0 C 56 % 94 % 0 % 1001,4 hPa 0,0 l/m 0,0 km/h (0 Bft) 0 min 0,0 km/h (0 Bft)
08.11.2009 05:08 13,5 C 2,7 C 0,0 UV-I 0,0 C 56 % 94 % 0 % 1001,4 hPa 0,0 l/m 0,0 km/h (0 Bft) 0 min 0,0 km/h (0 Bft)
08.11.2009 05:10 13,5 C 2,7 C 0,0 UV-I 0,0 C 55 % 94 % 0 % 1001,4 hPa 0,0 l/m 0,0 km/h (0 Bft) 0 min 0,0 km/h (0 Bft)
08.11.2009 05:12 13,5 C 2,7 C 0,0 UV-I 0,0 C 55 % 94 % 0 % 1001,4 hPa 0,0 l/m 0,0 km/h (0 Bft) 0 min 0,0 km/h (0 Bft)
08.11.2009 05:14 13,5 C 2,6 C 0,0 UV-I 0,0 C 56 % 94 % 0 % 1001,7 hPa 0,0 l/m 0,0 km/h (0 Bft) 0 min 0,0 km/h (0 Bft)
08.11.2009 05:16 13,5 C 2,7 C 0,0 UV-I 0,0 C 56 % 94 % 0 % 1001,7 hPa 0,0 l/m 0,0 km/h (0 Bft) 0 min 0,0 km/h (0 Bft)
08.11.2009 05:18 13,5 C 2,7 C 0,0 UV-I 0,0 C 55 % 94 % 0 % 1001,7 hPa 0,0 l/m 0,0 km/h (0 Bft) 0 min 0,0 km/h (0 Bft)
08.11.2009 05:20 13,5 C 2,7 C 0,0 UV-I 0,0 C 55 % 94 % 0 % 1001,7 hPa 0,0 l/m 0,0 km/h (0 Bft) 0 min 0,0 km/h (0 Bft)
08.11.2009 05:22 13,5 C 2,5 C 0,0 UV-I 0,0 C 55 % 94 % 0 % 1001,7 hPa 0,0 l/m 0,0 km/h (0 Bft) 0 min 0,0 km/h (0 Bft)
08.11.2009 05:24 13,5 C 2,5 C 0,0 UV-I 0,0 C 55 % 94 % 0 % 1001,7 hPa 0,0 l/m 0,0 km/h (0 Bft) 0 min 0,0 km/h (0 Bft)
08.11.2009 05:26 13,5 C 2,5 C 0,0 UV-I 0,0 C 55 % 94 % 0 % 1001,7 hPa 0,0 l/m 0,0 km/h (0 Bft) 0 min 0,0 km/h (0 Bft)
08.11.2009 05:28 13,5 C 2,5 C 0,0 UV-I 0,0 C 55 % 94 % 0 % 1001,7 hPa 0,0 l/m 0,0 km/h (0 Bft) 0 min 0,0 km/h (0 Bft)
08.11.2009 05:30 13,5 C 2,5 C 0,0 UV-I 0,0 C 55 % 94 % 0 % 1001,7 hPa 0,0 l/m 0,0 km/h (0 Bft) 0 min 0,0 km/h (0 Bft)
08.11.2009 05:32 13,5 C 2,4 C 0,0 UV-I 0,0 C 55 % 94 % 0 % 1001,7 hPa 0,0 l/m 0,0 km/h (0 Bft) 0 min 0,0 km/h (0 Bft)
08.11.2009 05:34 13,3 C 2,4 C 0,0 UV-I 0,0 C 55 % 94 % 0 % 1001,6 hPa 0,0 l/m 0,0 km/h (0 Bft) 0 min 0,0 km/h (0 Bft)
08.11.2009 05:36 13,3 C 2,4 C 0,0 UV-I 0,0 C 55 % 94 % 0 % 1001,6 hPa 0,0 l/m 0,0 km/h (0 Bft) 0 min 0,0 km/h (0 Bft)
08.11.2009 05:38 13,3 C 2,4 C 0,0 UV-I 0,0 C 55 % 94 % 0 % 1001,6 hPa 0,0 l/m 0,0 km/h (0 Bft) 0 min 0,0 km/h (0 Bft)
08.11.2009 05:40 13,4 C 2,5 C 0,0 UV-I 0,0 C 55 % 94 % 0 % 1001,6 hPa 0,0 l/m 0,2 km/h (0 Bft) 0 min 2,9 km/h (1 Bft)
08.11.2009 05:42 13,4 C 2,4 C 0,0 UV-I 0,0 C 55 % 94 % 0 % 1001,6 hPa 0,0 l/m 0,2 km/h (0 Bft) 0 min 2,9 km/h (1 Bft)
08.11.2009 05:44 13,4 C 2,4 C 0,0 UV-I 0,0 C 55 % 94 % 0 % 1001,6 hPa 0,0 l/m 0,2 km/h (0 Bft) 0 min 2,6 km/h (1 Bft)
08.11.2009 05:46 13,4 C 2,5 C 0,0 UV-I 0,0 C 55 % 94 % 0 % 1001,6 hPa 0,0 l/m 0,2 km/h (0 Bft) 0 min 2,6 km/h (1 Bft)
08.11.2009 05:48 13,4 C 2,4 C 0,0 UV-I 0,0 C 55 % 94 % 0 % 1001,6 hPa 0,0 l/m 0,2 km/h (0 Bft) 0 min 0,0 km/h (0 Bft)
08.11.2009 05:50 13,4 C 2,4 C 0,0 UV-I 0,0 C 55 % 94 % 0 % 1001,6 hPa 0,0 l/m 0,2 km/h (0 Bft) 0 min 0,0 km/h (0 Bft)
08.11.2009 05:52 13,4 C 2,4 C 0,0 UV-I 0,0 C 55 % 94 % 0 % 1001,6 hPa 0,0 l/m 0,2 km/h (0 Bft) 0 min 0,0 km/h (0 Bft)
08.11.2009 05:54 13,4 C 2,4 C 0,0 UV-I 0,0 C 55 % 94 % 0 % 1001,8 hPa 0,0 l/m 0,0 km/h (0 Bft) 0 min 0,0 km/h (0 Bft)
08.11.2009 05:56 13,4 C 2,4 C 0,0 UV-I 0,0 C 55 % 94 % 0 % 1001,8 hPa 0,0 l/m 0,0 km/h (0 Bft) 0 min 0,0 km/h (0 Bft)
08.11.2009 05:58 13,4 C 2,4 C 0,0 UV-I 0,0 C 55 % 94 % 0 % 1001,8 hPa 0,0 l/m 0,0 km/h (0 Bft) 0 min 0,0 km/h (0 Bft)
08.11.2009 06:00 13,4 C 2,4 C 0,0 UV-I 0,0 C 55 % 94 % 0 % 1001,8 hPa 0,0 l/m 0,0 km/h (0 Bft) 0 min 3,1 km/h (1 Bft)
08.11.2009 06:02 13,4 C 2,5 C 0,0 UV-I 0,0 C 55 % 95 % 0 % 1001,8 hPa 0,0 l/m 0,0 km/h (0 Bft) 0 min 3,1 km/h (1 Bft)
08.11.2009 06:04 13,4 C 2,5 C 0,0 UV-I 0,0 C 55 % 95 % 0 % 1001,8 hPa 0,0 l/m 0,0 km/h (0 Bft) 0 min 0,0 km/h (0 Bft)
08.11.2009 06:06 13,4 C 2,4 C 0,0 UV-I 0,0 C 55 % 94 % 0 % 1001,8 hPa 0,0 l/m 0,0 km/h (0 Bft) 0 min 0,0 km/h (0 Bft)
08.11.2009 06:08 13,4 C 2,4 C 0,0 UV-I 0,0 C 55 % 94 % 0 % 1001,8 hPa 0,0 l/m 0,0 km/h (0 Bft) 0 min 0,0 km/h (0 Bft)
08.11.2009 06:10 13,4 C 2,4 C 0,0 UV-I 0,0 C 55 % 94 % 0 % 1001,8 hPa 0,0 l/m 0,0 km/h (0 Bft) 0 min 0,0 km/h (0 Bft)
08.11.2009 06:14 13,4 C 2,4 C 0,0 UV-I 0,0 C 55 % 94 % 0 % 1001,9 hPa 0,0 l/m 0,0 km/h (0 Bft) 0 min 0,0 km/h (0 Bft)
08.11.2009 06:16 13,4 C 2,4 C 0,0 UV-I 0,0 C 55 % 94 % 0 % 1001,9 hPa 0,0 l/m 0,0 km/h (0 Bft) 0 min 0,0 km/h (0 Bft)
08.11.2009 06:18 13,4 C 2,4 C 0,0 UV-I 0,0 C 55 % 94 % 0 % 1001,9 hPa 0,0 l/m 0,0 km/h (0 Bft) 0 min 0,0 km/h (0 Bft)
08.11.2009 06:20 13,4 C 2,4 C 0,0 UV-I 0,0 C 55 % 94 % 0 % 1001,9 hPa 0,0 l/m 0,0 km/h (0 Bft) 0 min 0,0 km/h (0 Bft)
08.11.2009 06:22 13,4 C 2,3 C 0,0 UV-I 0,0 C 55 % 94 % 0 % 1001,9 hPa 0,0 l/m 0,0 km/h (0 Bft) 0 min 0,0 km/h (0 Bft)
08.11.2009 06:24 13,4 C 2,3 C 0,0 UV-I 0,0 C 55 % 94 % 0 % 1001,9 hPa 0,0 l/m 0,0 km/h (0 Bft) 0 min 0,0 km/h (0 Bft)
08.11.2009 06:26 13,4 C 2,3 C 0,0 UV-I 0,0 C 55 % 94 % 0 % 1001,9 hPa 0,0 l/m 0,0 km/h (0 Bft) 0 min 0,0 km/h (0 Bft)
08.11.2009 06:28 13,2 C 2,3 C 0,0 UV-I 0,0 C 55 % 94 % 0 % 1001,9 hPa 0,0 l/m 0,0 km/h (0 Bft) 0 min 0,0 km/h (0 Bft)
08.11.2009 06:30 13,2 C 2,3 C 0,0 UV-I 0,0 C 55 % 94 % 0 % 1001,9 hPa 0,0 l/m 0,0 km/h (0 Bft) 0 min 0,0 km/h (0 Bft)
08.11.2009 06:32 13,2 C 2,3 C 0,0 UV-I 0,0 C 55 % 94 % 0 % 1001,9 hPa 0,0 l/m 0,0 km/h (0 Bft) 0 min 0,0 km/h (0 Bft)
08.11.2009 06:34 13,2 C 2,3 C 0,0 UV-I 0,0 C 55 % 94 % 0 % 1001,8 hPa 0,0 l/m 0,0 km/h (0 Bft) 0 min 0,0 km/h (0 Bft)
08.11.2009 06:36 13,2 C 2,3 C 0,0 UV-I 0,0 C 55 % 94 % 0 % 1001,8 hPa 0,0 l/m 0,0 km/h (0 Bft) 0 min 0,0 km/h (0 Bft)
08.11.2009 06:38 13,2 C 2,3 C 0,0 UV-I 0,0 C 55 % 94 % 0 % 1001,8 hPa 0,0 l/m 0,0 km/h (0 Bft) 0 min 0,0 km/h (0 Bft)
08.11.2009 06:40 13,2 C 2,3 C 0,0 UV-I 0,0 C 55 % 94 % 0 % 1001,8 hPa 0,0 l/m 0,0 km/h (0 Bft) 0 min 0,0 km/h (0 Bft)
08.11.2009 06:42 13,2 C 2,2 C 0,0 UV-I 0,0 C 55 % 94 % 0 % 1001,8 hPa 0,0 l/m 0,0 km/h (0 Bft) 0 min 0,0 km/h (0 Bft)
08.11.2009 06:44 13,2 C 2,2 C 0,0 UV-I 0,0 C 55 % 94 % 0 % 1001,8 hPa 0,0 l/m 0,0 km/h (0 Bft) 0 min 0,0 km/h (0 Bft)
08.11.2009 06:46 13,2 C 2,2 C 0,0 UV-I 0,0 C 55 % 94 % 0 % 1001,8 hPa 0,0 l/m 0,0 km/h (0 Bft) 0 min 0,0 km/h (0 Bft)
08.11.2009 06:48 13,2 C 2,3 C 0,0 UV-I 0,0 C 55 % 94 % 0 % 1001,8 hPa 0,0 l/m 0,0 km/h (0 Bft) 0 min 0,0 km/h (0 Bft)
08.11.2009 06:50 13,2 C 2,3 C 0,0 UV-I 0,0 C 55 % 94 % 0 % 1001,8 hPa 0,0 l/m 0,0 km/h (0 Bft) 0 min 0,0 km/h (0 Bft)
08.11.2009 06:52 13,2 C 2,3 C 0,0 UV-I 0,0 C 55 % 94 % 0 % 1001,8 hPa 0,0 l/m 0,0 km/h (0 Bft) 0 min 0,0 km/h (0 Bft)
08.11.2009 06:54 13,2 C 2,2 C 0,0 UV-I 0,0 C 55 % 94 % 0 % 1002,3 hPa 0,0 l/m 0,0 km/h (0 Bft) 0 min 0,0 km/h (0 Bft)
08.11.2009 06:56 13,2 C 2,2 C 0,0 UV-I 0,0 C 55 % 94 % 0 % 1002,3 hPa 0,0 l/m 0,0 km/h (0 Bft) 0 min 0,0 km/h (0 Bft)
08.11.2009 06:58 13,3 C 2,1 C 0,0 UV-I 0,0 C 55 % 94 % 0 % 1002,3 hPa 0,0 l/m 0,0 km/h (0 Bft) 0 min 0,0 km/h (0 Bft)
08.11.2009 07:00 13,2 C 2,1 C 0,0 UV-I 0,0 C 55 % 94 % 0 % 1002,3 hPa 0,0 l/m 0,0 km/h (0 Bft) 0 min 0,0 km/h (0 Bft)
08.11.2009 07:02 13,2 C 2,1 C 0,0 UV-I 0,0 C 55 % 94 % 0 % 1002,3 hPa 0,0 l/m 0,0 km/h (0 Bft) 0 min 0,0 km/h (0 Bft)
08.11.2009 07:04 13,3 C 2,2 C 0,0 UV-I 0,0 C 55 % 94 % 0 % 1002,3 hPa 0,0 l/m 0,0 km/h (0 Bft) 0 min 0,0 km/h (0 Bft)
08.11.2009 07:06 13,3 C 2,1 C 0,0 UV-I 0,0 C 55 % 95 % 0 % 1002,3 hPa 0,0 l/m 0,0 km/h (0 Bft) 0 min 0,0 km/h (0 Bft)
08.11.2009 07:08 13,3 C 2,3 C 0,0 UV-I 0,0 C 55 % 95 % 0 % 1002,3 hPa 0,0 l/m 0,0 km/h (0 Bft) 0 min 2,4 km/h (1 Bft)
08.11.2009 07:12 13,1 C 2,3 C 0,0 UV-I 0,0 C 55 % 95 % 0 % 1002,3 hPa 0,0 l/m 0,2 km/h (0 Bft) 0 min 2,4 km/h (1 Bft)
08.11.2009 07:14 13,1 C 2,2 C 0,0 UV-I 0,0 C 55 % 95 % 0 % 1002,1 hPa 0,0 l/m 0,2 km/h (0 Bft) 0 min 2,4 km/h (1 Bft)
08.11.2009 07:16 13,1 C 2,3 C 0,0 UV-I 0,0 C 55 % 95 % 0 % 1002,1 hPa 0,0 l/m 0,2 km/h (0 Bft) 0 min 0,0 km/h (0 Bft)
08.11.2009 07:18 13,1 C 2,3 C 0,0 UV-I 0,0 C 55 % 95 % 0 % 1002,1 hPa 0,0 l/m 0,2 km/h (0 Bft) 0 min 0,0 km/h (0 Bft)
08.11.2009 07:20 13,1 C 2,3 C 0,0 UV-I 0,0 C 55 % 95 % 0 % 1002,1 hPa 0,0 l/m 0,2 km/h (0 Bft) 0 min 0,0 km/h (0 Bft)
08.11.2009 07:22 13,1 C 2,3 C 0,0 UV-I 0,0 C 55 % 95 % 0 % 1002,1 hPa 0,0 l/m 0,2 km/h (0 Bft) 0 min 0,0 km/h (0 Bft)
08.11.2009 07:24 13,1 C 2,2 C 0,0 UV-I 0,0 C 55 % 95 % 0 % 1002,1 hPa 0,0 l/m 0,0 km/h (0 Bft) 0 min 0,0 km/h (0 Bft)
08.11.2009 07:26 13,1 C 2,1 C 0,0 UV-I 0,0 C 55 % 95 % 0 % 1002,1 hPa 0,0 l/m 0,0 km/h (0 Bft) 0 min 0,0 km/h (0 Bft)
08.11.2009 07:28 13,1 C 2,1 C 0,0 UV-I 0,0 C 55 % 95 % 0 % 1002,1 hPa 0,0 l/m 0,0 km/h (0 Bft) 0 min 0,0 km/h (0 Bft)
08.11.2009 07:30 13,1 C 2,1 C 0,0 UV-I 0,0 C 55 % 95 % 0 % 1002,1 hPa 0,0 l/m 0,0 km/h (0 Bft) 0 min 0,0 km/h (0 Bft)
08.11.2009 07:32 13,1 C 2,1 C 0,0 UV-I 0,0 C 55 % 95 % 0 % 1002,1 hPa 0,0 l/m 0,0 km/h (0 Bft) 0 min 0,0 km/h (0 Bft)
08.11.2009 07:34 13,1 C 2,1 C 0,0 UV-I 0,0 C 55 % 95 % 0 % 1002,4 hPa 0,0 l/m 0,0 km/h (0 Bft) 0 min 0,0 km/h (0 Bft)
08.11.2009 07:36 13,1 C 2,1 C 0,0 UV-I 0,0 C 55 % 95 % 0 % 1002,4 hPa 0,0 l/m 0,0 km/h (0 Bft) 0 min 0,0 km/h (0 Bft)
08.11.2009 07:38 13,1 C 2,1 C 0,0 UV-I 0,0 C 55 % 95 % 0 % 1002,4 hPa 0,0 l/m 0,0 km/h (0 Bft) 0 min 0,0 km/h (0 Bft)
08.11.2009 07:40 13,2 C 2,1 C 0,0 UV-I 0,0 C 55 % 95 % 0 % 1002,4 hPa 0,0 l/m 0,0 km/h (0 Bft) 0 min 0,0 km/h (0 Bft)
08.11.2009 07:42 13,2 C 2,1 C 0,0 UV-I 0,0 C 55 % 95 % 0 % 1002,4 hPa 0,0 l/m 0,0 km/h (0 Bft) 0 min 0,0 km/h (0 Bft)
08.11.2009 07:44 13,2 C 2,1 C 0,0 UV-I 0,0 C 55 % 95 % 0 % 1002,4 hPa 0,0 l/m 0,0 km/h (0 Bft) 0 min 0,0 km/h (0 Bft)
08.11.2009 07:46 13,2 C 2,0 C 0,0 UV-I 0,0 C 55 % 95 % 0 % 1002,4 hPa 0,0 l/m 0,0 km/h (0 Bft) 0 min 0,0 km/h (0 Bft)
08.11.2009 07:48 13,2 C 2,1 C 0,0 UV-I 0,0 C 55 % 95 % 0 % 1002,4 hPa 0,0 l/m 0,0 km/h (0 Bft) 0 min 0,0 km/h (0 Bft)
08.11.2009 07:50 13,2 C 2,0 C 0,0 UV-I 0,0 C 55 % 95 % 0 % 1002,4 hPa 0,0 l/m 0,0 km/h (0 Bft) 0 min 0,0 km/h (0 Bft)
08.11.2009 07:52 13,2 C 2,1 C 0,0 UV-I 0,0 C 55 % 95 % 0 % 1002,4 hPa 0,0 l/m 0,0 km/h (0 Bft) 0 min 0,0 km/h (0 Bft)
08.11.2009 07:54 13,2 C 2,0 C 0,0 UV-I 0,0 C 54 % 95 % 0 % 1002,8 hPa 0,0 l/m 0,0 km/h (0 Bft) 0 min 0,0 km/h (0 Bft)
08.11.2009 07:56 13,2 C 2,0 C 0,0 UV-I 0,0 C 54 % 95 % 0 % 1002,8 hPa 0,0 l/m 0,0 km/h (0 Bft) 0 min 0,0 km/h (0 Bft)
08.11.2009 07:58 13,2 C 2,0 C 0,0 UV-I 0,0 C 55 % 95 % 0 % 1002,8 hPa 0,0 l/m 0,0 km/h (0 Bft) 0 min 0,0 km/h (0 Bft)
08.11.2009 08:00 13,2 C 2,0 C 0,0 UV-I 0,0 C 55 % 95 % 0 % 1002,8 hPa 0,0 l/m 0,0 km/h (0 Bft) 0 min 0,0 km/h (0 Bft)
08.11.2009 08:02 13,2 C 1,9 C 0,0 UV-I 0,0 C 55 % 95 % 0 % 1002,8 hPa 0,0 l/m 0,0 km/h (0 Bft) 0 min 0,0 km/h (0 Bft)
08.11.2009 08:06 13,2 C 1,9 C 0,0 UV-I 0,0 C 55 % 95 % 0 % 1002,8 hPa 0,0 l/m 0,0 km/h (0 Bft) 0 min 0,0 km/h (0 Bft)
08.11.2009 08:10 13,2 C 1,9 C 0,0 UV-I 0,0 C 55 % 95 % 0 % 1002,8 hPa 0,0 l/m 0,0 km/h (0 Bft) 0 min 0,0 km/h (0 Bft)
08.11.2009 08:12 13,2 C 1,8 C 0,0 UV-I 0,0 C 54 % 95 % 0 % 1002,8 hPa 0,0 l/m 0,0 km/h (0 Bft) 0 min 0,0 km/h (0 Bft)
08.11.2009 08:16 13,2 C 1,8 C 0,0 UV-I 0,0 C 54 % 95 % 0 % 1002,9 hPa 0,0 l/m 0,0 km/h (0 Bft) 0 min 0,0 km/h (0 Bft)
08.11.2009 08:18 13,2 C 1,9 C 0,0 UV-I 0,0 C 54 % 95 % 0 % 1002,9 hPa 0,0 l/m 0,0 km/h (0 Bft) 0 min 0,0 km/h (0 Bft)
08.11.2009 08:20 13,2 C 1,9 C 0,0 UV-I 0,0 C 54 % 95 % 0 % 1002,9 hPa 0,0 l/m 0,0 km/h (0 Bft) 0 min 0,0 km/h (0 Bft)
08.11.2009 08:22 13,2 C 1,8 C 0,0 UV-I 0,0 C 54 % 95 % 0 % 1002,9 hPa 0,0 l/m 0,0 km/h (0 Bft) 0 min 0,0 km/h (0 Bft)
08.11.2009 08:24 13,2 C 1,9 C 0,0 UV-I 0,0 C 55 % 95 % 0 % 1002,9 hPa 0,0 l/m 0,0 km/h (0 Bft) 0 min 0,0 km/h (0 Bft)
08.11.2009 08:30 13,1 C 1,9 C 0,0 UV-I 0,0 C 55 % 95 % 0 % 1002,9 hPa 0,0 l/m 0,0 km/h (0 Bft) 0 min 0,0 km/h (0 Bft)
08.11.2009 08:32 13,2 C 1,9 C 0,0 UV-I 0,0 C 55 % 95 % 0 % 1002,9 hPa 0,0 l/m 0,0 km/h (0 Bft) 0 min 0,0 km/h (0 Bft)
08.11.2009 08:34 13,2 C 1,9 C 0,0 UV-I 0,0 C 55 % 95 % 0 % 1003,4 hPa 0,0 l/m 0,0 km/h (0 Bft) 0 min 0,0 km/h (0 Bft)
08.11.2009 08:36 13,1 C 1,9 C 0,0 UV-I 0,0 C 55 % 95 % 0 % 1003,4 hPa 0,0 l/m 0,0 km/h (0 Bft) 0 min 0,0 km/h (0 Bft)
08.11.2009 08:38 13,1 C 1,8 C 0,0 UV-I 0,0 C 55 % 95 % 0 % 1003,4 hPa 0,0 l/m 0,0 km/h (0 Bft) 0 min 0,0 km/h (0 Bft)
08.11.2009 08:40 13,1 C 1,9 C 0,0 UV-I 0,0 C 55 % 95 % 0 % 1003,4 hPa 0,0 l/m 0,0 km/h (0 Bft) 0 min 0,0 km/h (0 Bft)
08.11.2009 08:44 13,1 C 1,9 C 0,0 UV-I 0,0 C 55 % 95 % 0 % 1003,4 hPa 0,0 l/m 0,0 km/h (0 Bft) 0 min 0,0 km/h (0 Bft)
08.11.2009 08:46 13,1 C 1,9 C 0,0 UV-I 0,0 C 55 % 95 % 0 % 1003,4 hPa 0,0 l/m 0,0 km/h (0 Bft) 0 min 0,0 km/h (0 Bft)
08.11.2009 08:48 13,1 C 2,0 C 0,0 UV-I 0,0 C 55 % 95 % 0 % 1003,4 hPa 0,0 l/m 0,0 km/h (0 Bft) 0 min 0,0 km/h (0 Bft)
08.11.2009 08:50 13,1 C 2,0 C 0,1 UV-I 0,0 C 55 % 95 % 0 % 1003,4 hPa 0,0 l/m 0,0 km/h (0 Bft) 0 min 0,0 km/h (0 Bft)
08.11.2009 08:52 13,1 C 2,0 C 0,1 UV-I 0,0 C 55 % 95 % 0 % 1003,4 hPa 0,0 l/m 0,0 km/h (0 Bft) 0 min 0,0 km/h (0 Bft)
08.11.2009 08:56 13,1 C 2,0 C 0,1 UV-I 0,0 C 55 % 95 % 0 % 1003,2 hPa 0,0 l/m 0,0 km/h (0 Bft) 0 min 0,0 km/h (0 Bft)
08.11.2009 09:00 13,2 C 2,0 C 0,1 UV-I 0,0 C 55 % 95 % 0 % 1003,2 hPa 0,0 l/m 0,0 km/h (0 Bft) 0 min 0,0 km/h (0 Bft)
08.11.2009 09:02 13,2 C 2,1 C 0,1 UV-I 0,0 C 55 % 95 % 0 % 1003,2 hPa 0,0 l/m 0,0 km/h (0 Bft) 0 min 0,0 km/h (0 Bft)
08.11.2009 09:04 13,2 C 2,1 C 0,2 UV-I 0,0 C 55 % 95 % 0 % 1003,2 hPa 0,0 l/m 0,0 km/h (0 Bft) 0 min 0,0 km/h (0 Bft)
08.11.2009 09:08 13,2 C 2,3 C 0,2 UV-I 0,0 C 55 % 95 % 0 % 1003,2 hPa 0,0 l/m 0,0 km/h (0 Bft) 0 min 0,0 km/h (0 Bft)
08.11.2009 09:10 13,2 C 2,2 C 0,2 UV-I 0,3 C 55 % 96 % 9 % 1003,2 hPa 0,0 l/m 0,0 km/h (0 Bft) 0 min 0,0 km/h (0 Bft)
08.11.2009 09:12 13,2 C 2,3 C 0,2 UV-I 0,6 C 55 % 96 % 17 % 1003,2 hPa 0,0 l/m 0,0 km/h (0 Bft) 0 min 0,0 km/h (0 Bft)
08.11.2009 09:14 13,2 C 2,3 C 0,2 UV-I 1,6 C 55 % 96 % 46 % 1003,8 hPa 0,0 l/m 0,0 km/h (0 Bft) 0 min 0,0 km/h (0 Bft)
08.11.2009 09:16 13,2 C 2,3 C 0,2 UV-I 1,7 C 55 % 96 % 49 % 1003,8 hPa 0,0 l/m 0,0 km/h (0 Bft) 2 min 3,1 km/h (1 Bft)
08.11.2009 09:20 13,2 C 2,5 C 0,2 UV-I 1,5 C 55 % 96 % 43 % 1003,8 hPa 0,0 l/m 0,0 km/h (0 Bft) 0 min 0,0 km/h (0 Bft)
08.11.2009 09:22 13,2 C 2,4 C 0,2 UV-I 2,3 C 55 % 96 % 66 % 1003,8 hPa 0,0 l/m 0,0 km/h (0 Bft) 2 min 0,0 km/h (0 Bft)
08.11.2009 09:24 13,2 C 2,5 C 0,2 UV-I 2,9 C 55 % 96 % 83 % 1003,8 hPa 0,0 l/m 0,0 km/h (0 Bft) 2 min 0,0 km/h (0 Bft)
08.11.2009 09:26 13,2 C 2,5 C 0,2 UV-I 3,7 C 55 % 96 % 100 % 1003,8 hPa 0,0 l/m 0,0 km/h (0 Bft) 2 min 0,0 km/h (0 Bft)
08.11.2009 09:28 13,2 C 2,7 C 0,2 UV-I 3,9 C 55 % 96 % 100 % 1003,8 hPa 0,0 l/m 0,0 km/h (0 Bft) 2 min 0,0 km/h (0 Bft)
08.11.2009 09:30 13,2 C 2,7 C 0,3 UV-I 4,5 C 55 % 96 % 100 % 1003,8 hPa 0,0 l/m 0,0 km/h (0 Bft) 2 min 0,0 km/h (0 Bft)
08.11.2009 09:32 13,2 C 2,6 C 0,3 UV-I 5,4 C 55 % 96 % 100 % 1003,8 hPa 0,0 l/m 0,0 km/h (0 Bft) 2 min 0,0 km/h (0 Bft)
08.11.2009 09:34 13,2 C 2,8 C 0,3 UV-I 5,6 C 55 % 96 % 100 % 1003,8 hPa 0,0 l/m 0,0 km/h (0 Bft) 2 min 0,0 km/h (0 Bft)
08.11.2009 09:38 13,4 C 2,8 C 0,3 UV-I 6,3 C 55 % 96 % 100 % 1003,8 hPa 0,0 l/m 0,0 km/h (0 Bft) 2 min 0,0 km/h (0 Bft)
08.11.2009 09:40 13,4 C 3,1 C 0,3 UV-I 6,3 C 55 % 96 % 100 % 1003,8 hPa 0,0 l/m 0,0 km/h (0 Bft) 2 min 0,0 km/h (0 Bft)
08.11.2009 09:42 13,4 C 3,1 C 0,3 UV-I 6,7 C 55 % 96 % 100 % 1003,8 hPa 0,0 l/m 0,0 km/h (0 Bft) 2 min 0,0 km/h (0 Bft)
08.11.2009 09:46 13,4 C 3,2 C 0,3 UV-I 7,2 C 56 % 96 % 100 % 1003,8 hPa 0,0 l/m 0,0 km/h (0 Bft) 2 min 0,0 km/h (0 Bft)
08.11.2009 09:48 13,4 C 3,3 C 0,3 UV-I 7,3 C 56 % 96 % 100 % 1003,8 hPa 0,0 l/m 0,2 km/h (0 Bft) 2 min 0,0 km/h (0 Bft)
08.11.2009 09:50 13,4 C 3,5 C 0,3 UV-I 7,3 C 56 % 96 % 100 % 1003,8 hPa 0,0 l/m 0,2 km/h (0 Bft) 2 min 0,0 km/h (0 Bft)
08.11.2009 09:52 13,4 C 3,5 C 0,3 UV-I 7,5 C 56 % 96 % 100 % 1003,8 hPa 0,0 l/m 0,2 km/h (0 Bft) 2 min 2,4 km/h (1 Bft)
08.11.2009 09:54 13,4 C 3,7 C 0,4 UV-I 7,4 C 56 % 96 % 100 % 1004,1 hPa 0,0 l/m 0,5 km/h (0 Bft) 2 min 4,6 km/h (1 Bft)
08.11.2009 09:56 13,4 C 3,7 C 0,4 UV-I 7,4 C 56 % 96 % 100 % 1004,1 hPa 0,0 l/m 0,7 km/h (0 Bft) 2 min 4,6 km/h (1 Bft)
08.11.2009 09:58 13,4 C 3,9 C 0,4 UV-I 7,5 C 56 % 96 % 100 % 1004,1 hPa 0,0 l/m 0,7 km/h (0 Bft) 2 min 0,0 km/h (0 Bft)
08.11.2009 10:00 13,4 C 3,9 C 0,4 UV-I 7,7 C 56 % 96 % 100 % 1004,1 hPa 0,0 l/m 0,7 km/h (0 Bft) 2 min 3,1 km/h (1 Bft)
08.11.2009 10:02 13,3 C 4,0 C 0,4 UV-I 7,7 C 56 % 96 % 100 % 1004,1 hPa 0,0 l/m 0,7 km/h (0 Bft) 2 min 4,6 km/h (1 Bft)
08.11.2009 10:04 13,3 C 4,1 C 0,5 UV-I 7,8 C 56 % 97 % 100 % 1004,1 hPa 0,0 l/m 0,5 km/h (0 Bft) 2 min 3,6 km/h (1 Bft)
08.11.2009 10:06 13,5 C 4,2 C 0,5 UV-I 7,8 C 56 % 96 % 100 % 1004,1 hPa 0,0 l/m 0,5 km/h (0 Bft) 2 min 4,6 km/h (1 Bft)
08.11.2009 10:08 13,5 C 4,4 C 0,5 UV-I 7,6 C 56 % 97 % 100 % 1004,1 hPa 0,0 l/m 0,5 km/h (0 Bft) 2 min 4,6 km/h (1 Bft)
08.11.2009 10:10 13,5 C 4,4 C 0,4 UV-I 7,7 C 56 % 97 % 100 % 1004,1 hPa 0,0 l/m 0,7 km/h (0 Bft) 2 min 0,0 km/h (0 Bft)
08.11.2009 10:12 13,5 C 4,7 C 0,4 UV-I 7,5 C 56 % 97 % 100 % 1004,1 hPa 0,0 l/m 1,0 km/h (0 Bft) 2 min 2,6 km/h (1 Bft)
08.11.2009 10:14 13,5 C 4,7 C 0,5 UV-I 7,6 C 56 % 97 % 100 % 1004,0 hPa 0,0 l/m 1,0 km/h (0 Bft) 2 min 2,6 km/h (1 Bft)
08.11.2009 10:16 13,5 C 4,8 C 0,5 UV-I 7,7 C 56 % 96 % 100 % 1004,0 hPa 0,0 l/m 1,2 km/h (1 Bft) 2 min 6,0 km/h (2 Bft)
08.11.2009 10:18 13,4 C 4,9 C 0,5 UV-I 7,7 C 56 % 96 % 100 % 1004,0 hPa 0,0 l/m 1,2 km/h (1 Bft) 2 min 5,5 km/h (1 Bft)
08.11.2009 10:20 13,4 C 5,1 C 0,6 UV-I 7,5 C 56 % 97 % 100 % 1004,0 hPa 0,0 l/m 1,2 km/h (1 Bft) 2 min 5,5 km/h (1 Bft)
08.11.2009 10:22 13,6 C 5,1 C 0,6 UV-I 7,6 C 56 % 97 % 100 % 1004,0 hPa 0,0 l/m 1,2 km/h (1 Bft) 2 min 6,0 km/h (2 Bft)
08.11.2009 10:24 13,6 C 5,1 C 0,6 UV-I 7,7 C 56 % 97 % 100 % 1004,0 hPa 0,0 l/m 1,0 km/h (0 Bft) 2 min 2,6 km/h (1 Bft)
08.11.2009 10:26 13,6 C 5,2 C 0,6 UV-I 7,7 C 56 % 97 % 100 % 1004,0 hPa 0,0 l/m 1,4 km/h (1 Bft) 2 min 2,6 km/h (1 Bft)
08.11.2009 10:28 13,6 C 5,3 C 0,6 UV-I 7,7 C 56 % 97 % 100 % 1004,0 hPa 0,0 l/m 1,0 km/h (0 Bft) 2 min 0,0 km/h (0 Bft)
08.11.2009 10:32 13,6 C 5,5 C 0,6 UV-I 8,2 C 56 % 97 % 100 % 1004,0 hPa 0,0 l/m 0,7 km/h (0 Bft) 2 min 0,0 km/h (0 Bft)
08.11.2009 10:34 13,6 C 5,5 C 0,6 UV-I 8,5 C 56 % 97 % 100 % 1004,4 hPa 0,0 l/m 0,7 km/h (0 Bft) 2 min 0,0 km/h (0 Bft)
08.11.2009 10:39 13,6 C 5,6 C 0,7 UV-I 8,9 C 56 % 96 % 100 % 1004,4 hPa 0,0 l/m 0,5 km/h (0 Bft) 2 min 3,6 km/h (1 Bft)
08.11.2009 10:44 13,7 C 5,7 C 0,6 UV-I 9,0 C 56 % 96 % 100 % 1004,4 hPa 0,0 l/m 0,5 km/h (0 Bft) 2 min 0,0 km/h (0 Bft)
08.11.2009 10:48 13,6 C 6,0 C 0,6 UV-I 9,1 C 56 % 96 % 100 % 1004,4 hPa 0,0 l/m 0,2 km/h (0 Bft) 2 min 0,0 km/h (0 Bft)
08.11.2009 10:50 13,6 C 6,0 C 0,6 UV-I 9,5 C 56 % 96 % 100 % 1004,4 hPa 0,0 l/m 0,2 km/h (0 Bft) 2 min 0,0 km/h (0 Bft)
08.11.2009 10:52 13,8 C 6,2 C 0,6 UV-I 9,5 C 56 % 96 % 100 % 1004,4 hPa 0,0 l/m 0,2 km/h (0 Bft) 2 min 2,4 km/h (1 Bft)
08.11.2009 10:54 13,8 C 6,2 C 0,6 UV-I 9,6 C 56 % 96 % 100 % 1004,8 hPa 0,0 l/m 0,2 km/h (0 Bft) 2 min 2,4 km/h (1 Bft)
08.11.2009 10:56 13,8 C 6,4 C 0,6 UV-I 9,6 C 56 % 96 % 100 % 1004,8 hPa 0,0 l/m 0,2 km/h (0 Bft) 2 min 0,0 km/h (0 Bft)
08.11.2009 10:58 13,8 C 6,5 C 0,6 UV-I 9,9 C 56 % 96 % 100 % 1004,8 hPa 0,0 l/m 0,2 km/h (0 Bft) 2 min 0,0 km/h (0 Bft)
08.11.2009 11:00 13,8 C 6,6 C 0,6 UV-I 9,9 C 56 % 96 % 100 % 1004,8 hPa 0,0 l/m 0,2 km/h (0 Bft) 2 min 0,0 km/h (0 Bft)
08.11.2009 11:02 13,8 C 6,7 C 0,6 UV-I 9,9 C 56 % 96 % 100 % 1004,8 hPa 0,0 l/m 0,2 km/h (0 Bft) 2 min 0,0 km/h (0 Bft)
08.11.2009 11:04 13,9 C 6,8 C 0,6 UV-I 10,0 C 56 % 96 % 100 % 1004,8 hPa 0,0 l/m 0,0 km/h (0 Bft) 2 min 0,0 km/h (0 Bft)
08.11.2009 11:06 13,9 C 7,0 C 0,6 UV-I 9,8 C 56 % 96 % 100 % 1004,8 hPa 0,0 l/m 0,0 km/h (0 Bft) 2 min 0,0 km/h (0 Bft)
08.11.2009 11:08 13,8 C 7,1 C 0,6 UV-I 10,0 C 56 % 96 % 100 % 1004,8 hPa 0,0 l/m 0,0 km/h (0 Bft) 2 min 0,0 km/h (0 Bft)
08.11.2009 11:10 14,0 C 7,2 C 0,7 UV-I 10,2 C 56 % 96 % 100 % 1004,8 hPa 0,0 l/m 0,0 km/h (0 Bft) 2 min 0,0 km/h (0 Bft)
08.11.2009 11:12 14,0 C 7,2 C 0,7 UV-I 10,3 C 56 % 96 % 100 % 1004,8 hPa 0,0 l/m 0,0 km/h (0 Bft) 2 min 0,0 km/h (0 Bft)
08.11.2009 11:14 14,0 C 7,4 C 0,6 UV-I 10,1 C 56 % 95 % 100 % 1004,9 hPa 0,0 l/m 0,0 km/h (0 Bft) 2 min 0,0 km/h (0 Bft)
08.11.2009 11:16 14,0 C 7,6 C 0,6 UV-I 9,9 C 56 % 95 % 100 % 1004,9 hPa 0,0 l/m 0,0 km/h (0 Bft) 2 min 0,0 km/h (0 Bft)
08.11.2009 11:18 13,9 C 7,7 C 0,6 UV-I 9,8 C 57 % 95 % 100 % 1004,9 hPa 0,0 l/m 0,0 km/h (0 Bft) 2 min 0,0 km/h (0 Bft)
08.11.2009 11:20 13,9 C 7,9 C 0,8 UV-I 9,6 C 56 % 95 % 100 % 1004,9 hPa 0,0 l/m 0,0 km/h (0 Bft) 2 min 0,0 km/h (0 Bft)
08.11.2009 11:22 14,1 C 7,9 C 0,8 UV-I 9,7 C 56 % 95 % 100 % 1004,9 hPa 0,0 l/m 0,0 km/h (0 Bft) 2 min 0,0 km/h (0 Bft)
08.11.2009 11:24 14,1 C 8,0 C 0,9 UV-I 9,7 C 56 % 95 % 100 % 1004,9 hPa 0,0 l/m 0,0 km/h (0 Bft) 2 min 0,0 km/h (0 Bft)
08.11.2009 11:26 14,1 C 8,3 C 0,9 UV-I 9,9 C 56 % 94 % 100 % 1004,9 hPa 0,0 l/m 0,0 km/h (0 Bft) 2 min 0,0 km/h (0 Bft)
08.11.2009 11:28 14,1 C 8,3 C 0,9 UV-I 9,9 C 56 % 94 % 100 % 1004,9 hPa 0,0 l/m 0,2 km/h (0 Bft) 2 min 0,0 km/h (0 Bft)
08.11.2009 11:30 14,1 C 8,4 C 0,7 UV-I 9,8 C 56 % 94 % 100 % 1004,9 hPa 0,0 l/m 0,2 km/h (0 Bft) 2 min 0,0 km/h (0 Bft)
08.11.2009 11:32 14,2 C 8,6 C 0,7 UV-I 9,6 C 56 % 94 % 100 % 1004,9 hPa 0,0 l/m 0,2 km/h (0 Bft) 2 min 0,0 km/h (0 Bft)
08.11.2009 11:34 14,2 C 8,7 C 1,1 UV-I 9,6 C 56 % 93 % 100 % 1005,2 hPa 0,0 l/m 0,2 km/h (0 Bft) 2 min 0,0 km/h (0 Bft)
08.11.2009 11:36 14,2 C 8,8 C 1,1 UV-I 9,6 C 56 % 93 % 100 % 1005,2 hPa 0,0 l/m 0,2 km/h (0 Bft) 2 min 2,4 km/h (1 Bft)
08.11.2009 11:38 14,1 C 8,9 C 1,1 UV-I 9,6 C 56 % 93 % 100 % 1005,2 hPa 0,0 l/m 0,0 km/h (0 Bft) 2 min 2,4 km/h (1 Bft)
08.11.2009 11:40 14,1 C 8,9 C 1,1 UV-I 9,7 C 56 % 92 % 100 % 1005,2 hPa 0,0 l/m 0,0 km/h (0 Bft) 2 min 0,0 km/h (0 Bft)
08.11.2009 11:42 14,3 C 9,0 C 1,1 UV-I 9,6 C 56 % 92 % 100 % 1005,2 hPa 0,0 l/m 0,2 km/h (0 Bft) 2 min 0,0 km/h (0 Bft)
08.11.2009 11:44 14,3 C 9,2 C 1,2 UV-I 9,2 C 56 % 92 % 100 % 1005,2 hPa 0,0 l/m 0,2 km/h (0 Bft) 2 min 0,0 km/h (0 Bft)
08.11.2009 11:46 14,2 C 9,2 C 1,2 UV-I 9,2 C 57 % 92 % 100 % 1005,2 hPa 0,0 l/m 0,2 km/h (0 Bft) 2 min 0,0 km/h (0 Bft)
08.11.2009 11:48 14,2 C 9,3 C 1,2 UV-I 9,1 C 57 % 91 % 100 % 1005,2 hPa 0,0 l/m 0,5 km/h (0 Bft) 2 min 0,0 km/h (0 Bft)
08.11.2009 11:50 14,4 C 9,4 C 1,2 UV-I 9,0 C 57 % 91 % 100 % 1005,2 hPa 0,0 l/m 0,5 km/h (0 Bft) 2 min 0,0 km/h (0 Bft)
08.11.2009 11:52 14,4 C 9,4 C 1,2 UV-I 9,0 C 57 % 90 % 100 % 1005,2 hPa 0,0 l/m 0,5 km/h (0 Bft) 2 min 0,0 km/h (0 Bft)
08.11.2009 11:54 14,4 C 9,6 C 1,2 UV-I 8,8 C 57 % 90 % 100 % 1005,2 hPa 0,0 l/m 0,2 km/h (0 Bft) 2 min 0,0 km/h (0 Bft)
08.11.2009 11:56 14,3 C 9,7 C 1,2 UV-I 8,8 C 57 % 90 % 100 % 1005,2 hPa 0,0 l/m 0,2 km/h (0 Bft) 2 min 0,0 km/h (0 Bft)
08.11.2009 11:58 14,5 C 9,9 C 1,2 UV-I 8,7 C 57 % 89 % 100 % 1005,2 hPa 0,0 l/m 0,2 km/h (0 Bft) 2 min 5,1 km/h (1 Bft)
08.11.2009 12:00 14,4 C 9,9 C 1,2 UV-I 8,7 C 57 % 89 % 100 % 1005,2 hPa 0,0 l/m 0,5 km/h (0 Bft) 2 min 5,1 km/h (1 Bft)
08.11.2009 12:02 14,4 C 10,0 C 1,2 UV-I 8,6 C 57 % 88 % 100 % 1005,2 hPa 0,0 l/m 0,5 km/h (0 Bft) 2 min 2,6 km/h (1 Bft)
08.11.2009 12:04 14,4 C 10,0 C 1,2 UV-I 8,6 C 57 % 88 % 100 % 1005,2 hPa 0,0 l/m 0,5 km/h (0 Bft) 2 min 0,0 km/h (0 Bft)
08.11.2009 12:06 14,6 C 10,1 C 1,2 UV-I 8,9 C 57 % 88 % 100 % 1005,2 hPa 0,0 l/m 0,2 km/h (0 Bft) 2 min 0,0 km/h (0 Bft)
08.11.2009 12:08 14,6 C 10,3 C 1,2 UV-I 8,9 C 57 % 87 % 100 % 1005,2 hPa 0,0 l/m 0,2 km/h (0 Bft) 2 min 3,4 km/h (1 Bft)
08.11.2009 12:10 14,6 C 10,2 C 0,9 UV-I 9,0 C 57 % 87 % 100 % 1005,2 hPa 0,0 l/m 0,2 km/h (0 Bft) 2 min 3,4 km/h (1 Bft)
08.11.2009 12:12 14,7 C 10,3 C 0,9 UV-I 8,9 C 57 % 87 % 100 % 1005,2 hPa 0,0 l/m 0,2 km/h (0 Bft) 2 min 2,4 km/h (1 Bft)
08.11.2009 12:14 14,7 C 10,4 C 1,1 UV-I 8,8 C 56 % 86 % 100 % 1005,3 hPa 0,0 l/m 0,5 km/h (0 Bft) 2 min 2,4 km/h (1 Bft)
08.11.2009 12:16 14,6 C 10,5 C 1,1 UV-I 8,5 C 56 % 86 % 100 % 1005,3 hPa 0,0 l/m 0,5 km/h (0 Bft) 2 min 0,0 km/h (0 Bft)
08.11.2009 12:18 14,8 C 10,5 C 1,1 UV-I 8,6 C 56 % 86 % 100 % 1005,3 hPa 0,0 l/m 0,7 km/h (0 Bft) 2 min 3,4 km/h (1 Bft)
08.11.2009 12:20 14,8 C 10,5 C 1,0 UV-I 8,5 C 56 % 85 % 100 % 1005,3 hPa 0,0 l/m 0,7 km/h (0 Bft) 2 min 3,6 km/h (1 Bft)
08.11.2009 12:22 14,8 C 10,5 C 1,0 UV-I 8,5 C 56 % 84 % 100 % 1005,3 hPa 0,0 l/m 0,7 km/h (0 Bft) 2 min 3,6 km/h (1 Bft)
08.11.2009 12:24 14,8 C 10,5 C 1,2 UV-I 8,5 C 56 % 84 % 100 % 1005,3 hPa 0,0 l/m 0,7 km/h (0 Bft) 2 min 0,0 km/h (0 Bft)
08.11.2009 12:26 14,9 C 10,6 C 1,2 UV-I 8,5 C 56 % 84 % 100 % 1005,3 hPa 0,0 l/m 0,5 km/h (0 Bft) 2 min 0,0 km/h (0 Bft)
08.11.2009 12:28 14,8 C 10,7 C 1,2 UV-I 8,5 C 56 % 83 % 100 % 1005,3 hPa 0,0 l/m 0,5 km/h (0 Bft) 2 min 2,4 km/h (1 Bft)
08.11.2009 12:30 14,8 C 10,7 C 1,2 UV-I 8,5 C 56 % 83 % 100 % 1005,3 hPa 0,0 l/m 0,5 km/h (0 Bft) 2 min 2,4 km/h (1 Bft)
08.11.2009 12:32 15,0 C 10,8 C 1,2 UV-I 8,4 C 56 % 83 % 100 % 1005,3 hPa 0,0 l/m 0,2 km/h (0 Bft) 2 min 0,0 km/h (0 Bft)
08.11.2009 12:34 14,9 C 10,9 C 1,2 UV-I 8,2 C 56 % 82 % 100 % 1005,6 hPa 0,0 l/m 0,5 km/h (0 Bft) 2 min 0,0 km/h (0 Bft)
08.11.2009 12:36 15,1 C 11,1 C 1,2 UV-I 7,9 C 56 % 82 % 100 % 1005,6 hPa 0,0 l/m 0,7 km/h (0 Bft) 2 min 2,4 km/h (1 Bft)
08.11.2009 12:38 15,1 C 11,1 C 1,2 UV-I 7,8 C 56 % 82 % 100 % 1005,6 hPa 0,0 l/m 0,7 km/h (0 Bft) 2 min 2,6 km/h (1 Bft)
08.11.2009 12:40 15,1 C 11,2 C 1,2 UV-I 7,7 C 56 % 81 % 100 % 1005,6 hPa 0,0 l/m 0,7 km/h (0 Bft) 2 min 2,6 km/h (1 Bft)
08.11.2009 12:42 15,2 C 11,3 C 1,2 UV-I 7,7 C 56 % 80 % 100 % 1005,6 hPa 0,0 l/m 1,0 km/h (0 Bft) 2 min 2,9 km/h (1 Bft)
08.11.2009 12:44 15,1 C 11,2 C 1,1 UV-I 7,7 C 56 % 80 % 100 % 1005,6 hPa 0,0 l/m 1,0 km/h (0 Bft) 2 min 2,9 km/h (1 Bft)
08.11.2009 12:46 15,1 C 11,3 C 1,1 UV-I 7,7 C 56 % 80 % 100 % 1005,6 hPa 0,0 l/m 1,0 km/h (0 Bft) 2 min 0,0 km/h (0 Bft)
08.11.2009 12:48 15,3 C 11,5 C 1,1 UV-I 7,5 C 55 % 80 % 100 % 1005,6 hPa 0,0 l/m 0,7 km/h (0 Bft) 2 min 0,0 km/h (0 Bft)
08.11.2009 12:50 15,2 C 11,5 C 1,1 UV-I 7,7 C 55 % 80 % 100 % 1005,6 hPa 0,0 l/m 0,5 km/h (0 Bft) 2 min 0,0 km/h (0 Bft)
08.11.2009 12:54 15,4 C 11,6 C 1,0 UV-I 7,7 C 55 % 79 % 100 % 1005,9 hPa 0,0 l/m 0,2 km/h (0 Bft) 2 min 2,4 km/h (1 Bft)
08.11.2009 12:56 15,4 C 11,7 C 1,0 UV-I 7,7 C 55 % 78 % 100 % 1005,9 hPa 0,0 l/m 0,2 km/h (0 Bft) 2 min 2,6 km/h (1 Bft)
08.11.2009 12:58 15,4 C 11,7 C 1,0 UV-I 7,8 C 55 % 78 % 100 % 1005,9 hPa 0,0 l/m 0,5 km/h (0 Bft) 2 min 2,6 km/h (1 Bft)
08.11.2009 13:00 15,4 C 11,7 C 1,1 UV-I 7,7 C 55 % 78 % 100 % 1005,9 hPa 0,0 l/m 0,5 km/h (0 Bft) 2 min 0,0 km/h (0 Bft)
08.11.2009 13:02 15,4 C 11,8 C 1,1 UV-I 7,5 C 55 % 78 % 100 % 1005,9 hPa 0,0 l/m 0,5 km/h (0 Bft) 2 min 0,0 km/h (0 Bft)
08.11.2009 13:04 15,3 C 11,9 C 1,1 UV-I 7,4 C 55 % 77 % 100 % 1005,9 hPa 0,0 l/m 0,5 km/h (0 Bft) 2 min 0,0 km/h (0 Bft)
08.11.2009 13:09 15,5 C 12,0 C 1,2 UV-I 7,9 C 55 % 77 % 100 % 1005,9 hPa 0,0 l/m 0,5 km/h (0 Bft) 2 min 2,9 km/h (1 Bft)
08.11.2009 13:14 15,4 C 12,3 C 1,1 UV-I 7,5 C 55 % 77 % 100 % 1006,1 hPa 0,0 l/m 0,5 km/h (0 Bft) 2 min 2,4 km/h (1 Bft)
08.11.2009 13:16 15,6 C 12,3 C 1,1 UV-I 7,5 C 55 % 76 % 100 % 1006,1 hPa 0,0 l/m 0,5 km/h (0 Bft) 2 min 2,4 km/h (1 Bft)
08.11.2009 13:18 15,6 C 12,2 C 1,1 UV-I 7,6 C 55 % 76 % 100 % 1006,1 hPa 0,0 l/m 0,7 km/h (0 Bft) 2 min 0,0 km/h (0 Bft)
08.11.2009 13:20 15,6 C 12,2 C 1,0 UV-I 7,3 C 55 % 75 % 100 % 1006,1 hPa 0,0 l/m 0,7 km/h (0 Bft) 2 min 6,7 km/h (2 Bft)
08.11.2009 13:22 15,6 C 12,3 C 1,0 UV-I 6,6 C 55 % 75 % 100 % 1006,1 hPa 0,0 l/m 1,0 km/h (0 Bft) 2 min 6,7 km/h (2 Bft)
08.11.2009 13:24 15,6 C 12,3 C 0,9 UV-I 5,8 C 55 % 75 % 100 % 1006,1 hPa 0,0 l/m 1,0 km/h (0 Bft) 2 min 0,0 km/h (0 Bft)
08.11.2009 13:26 15,6 C 12,3 C 0,9 UV-I 5,6 C 55 % 75 % 100 % 1006,1 hPa 0,0 l/m 0,7 km/h (0 Bft) 2 min 0,0 km/h (0 Bft)
08.11.2009 13:28 15,7 C 12,3 C 0,9 UV-I 5,7 C 55 % 75 % 100 % 1006,1 hPa 0,0 l/m 0,7 km/h (0 Bft) 2 min 0,0 km/h (0 Bft)
08.11.2009 13:30 15,6 C 12,3 C 0,8 UV-I 5,7 C 55 % 75 % 100 % 1006,1 hPa 0,0 l/m 0,7 km/h (0 Bft) 2 min 0,0 km/h (0 Bft)
08.11.2009 13:32 15,6 C 12,3 C 0,8 UV-I 4,9 C 55 % 75 % 100 % 1006,1 hPa 0,0 l/m 0,0 km/h (0 Bft) 2 min 0,0 km/h (0 Bft)
08.11.2009 13:34 15,6 C 12,2 C 1,1 UV-I 4,2 C 55 % 74 % 100 % 1005,6 hPa 0,0 l/m 0,2 km/h (0 Bft) 2 min 0,0 km/h (0 Bft)
08.11.2009 13:36 15,8 C 12,3 C 1,1 UV-I 3,8 C 54 % 75 % 100 % 1005,6 hPa 0,0 l/m 0,2 km/h (0 Bft) 2 min 0,0 km/h (0 Bft)
08.11.2009 13:38 15,8 C 12,1 C 1,1 UV-I 4,0 C 54 % 75 % 100 % 1005,6 hPa 0,0 l/m 0,2 km/h (0 Bft) 2 min 0,0 km/h (0 Bft)
08.11.2009 13:40 15,8 C 12,3 C 1,3 UV-I 4,0 C 54 % 75 % 100 % 1005,6 hPa 0,0 l/m 0,2 km/h (0 Bft) 2 min 0,0 km/h (0 Bft)
08.11.2009 13:42 15,9 C 12,3 C 1,3 UV-I 4,0 C 54 % 75 % 100 % 1005,6 hPa 0,0 l/m 0,2 km/h (0 Bft) 2 min 0,0 km/h (0 Bft)
08.11.2009 13:44 15,8 C 12,2 C 1,3 UV-I 4,1 C 54 % 74 % 100 % 1005,6 hPa 0,0 l/m 0,0 km/h (0 Bft) 2 min 0,0 km/h (0 Bft)
08.11.2009 13:46 16,0 C 12,3 C 1,3 UV-I 3,8 C 54 % 75 % 100 % 1005,6 hPa 0,0 l/m 0,0 km/h (0 Bft) 2 min 0,0 km/h (0 Bft)
08.11.2009 13:48 16,0 C 12,3 C 1,3 UV-I 3,8 C 54 % 74 % 100 % 1005,6 hPa 0,0 l/m 0,0 km/h (0 Bft) 2 min 0,0 km/h (0 Bft)
08.11.2009 13:50 16,0 C 12,3 C 1,9 UV-I 3,4 C 54 % 74 % 97 % 1005,6 hPa 0,0 l/m 0,2 km/h (0 Bft) 2 min 2,4 km/h (1 Bft)
08.11.2009 13:52 15,9 C 12,3 C 1,9 UV-I 3,3 C 54 % 75 % 94 % 1005,6 hPa 0,0 l/m 0,2 km/h (0 Bft) 2 min 2,4 km/h (1 Bft)
08.11.2009 13:54 15,9 C 12,2 C 2,1 UV-I 3,9 C 54 % 75 % 100 % 1006,9 hPa 0,0 l/m 0,2 km/h (0 Bft) 2 min 0,0 km/h (0 Bft)
08.11.2009 13:56 16,1 C 12,3 C 2,1 UV-I 4,4 C 54 % 75 % 100 % 1006,9 hPa 0,0 l/m 0,5 km/h (0 Bft) 2 min 2,6 km/h (1 Bft)
08.11.2009 13:58 16,2 C 12,3 C 2,1 UV-I 4,7 C 54 % 74 % 100 % 1006,9 hPa 0,0 l/m 0,7 km/h (0 Bft) 2 min 2,6 km/h (1 Bft)
08.11.2009 14:00 16,2 C 12,4 C 1,7 UV-I 5,0 C 54 % 74 % 100 % 1006,9 hPa 0,0 l/m 1,0 km/h (0 Bft) 2 min 2,4 km/h (1 Bft)
08.11.2009 14:02 16,3 C 12,5 C 1,7 UV-I 5,2 C 54 % 74 % 100 % 1006,9 hPa 0,0 l/m 1,0 km/h (0 Bft) 2 min 2,4 km/h (1 Bft)
08.11.2009 14:04 16,4 C 12,4 C 1,4 UV-I 5,5 C 54 % 74 % 100 % 1006,9 hPa 0,0 l/m 1,4 km/h (1 Bft) 2 min 3,1 km/h (1 Bft)
08.11.2009 14:06 16,4 C 12,4 C 1,4 UV-I 5,6 C 54 % 74 % 100 % 1006,9 hPa 0,0 l/m 1,4 km/h (1 Bft) 2 min 3,1 km/h (1 Bft)
08.11.2009 14:08 16,4 C 12,4 C 1,4 UV-I 5,4 C 54 % 74 % 100 % 1006,9 hPa 0,0 l/m 1,0 km/h (0 Bft) 2 min 2,6 km/h (1 Bft)
08.11.2009 14:10 16,4 C 12,3 C 1,4 UV-I 5,0 C 54 % 74 % 100 % 1006,9 hPa 0,0 l/m 0,7 km/h (0 Bft) 2 min 0,0 km/h (0 Bft)
08.11.2009 14:12 16,4 C 12,3 C 1,4 UV-I 4,4 C 53 % 74 % 100 % 1006,9 hPa 0,0 l/m 0,7 km/h (0 Bft) 2 min 0,0 km/h (0 Bft)
08.11.2009 14:14 16,5 C 12,3 C 1,4 UV-I 4,3 C 53 % 74 % 100 % 1008,9 hPa 0,0 l/m 0,5 km/h (0 Bft) 2 min 0,0 km/h (0 Bft)
08.11.2009 14:16 16,6 C 12,3 C 1,4 UV-I 4,1 C 53 % 74 % 100 % 1008,9 hPa 0,0 l/m 0,2 km/h (0 Bft) 2 min 0,0 km/h (0 Bft)
08.11.2009 14:18 16,6 C 12,3 C 1,4 UV-I 4,0 C 53 % 74 % 100 % 1008,9 hPa 0,0 l/m 0,0 km/h (0 Bft) 2 min 0,0 km/h (0 Bft)
08.11.2009 14:20 16,6 C 12,3 C 1,3 UV-I 3,6 C 53 % 73 % 100 % 1008,9 hPa 0,0 l/m 0,2 km/h (0 Bft) 2 min 4,1 km/h (1 Bft)
08.11.2009 14:22 16,6 C 12,3 C 1,3 UV-I 2,9 C 53 % 73 % 83 % 1008,9 hPa 0,0 l/m 0,2 km/h (0 Bft) 2 min 4,1 km/h (1 Bft)
08.11.2009 14:24 16,6 C 12,1 C 1,2 UV-I 2,4 C 53 % 73 % 69 % 1008,9 hPa 0,0 l/m 0,2 km/h (0 Bft) 0 min 0,0 km/h (0 Bft)
08.11.2009 14:26 16,6 C 12,0 C 1,2 UV-I 2,0 C 53 % 73 % 57 % 1008,9 hPa 0,0 l/m 0,2 km/h (0 Bft) 0 min 0,0 km/h (0 Bft)
08.11.2009 14:28 16,6 C 12,0 C 1,2 UV-I 2,0 C 53 % 73 % 57 % 1008,9 hPa 0,0 l/m 0,2 km/h (0 Bft) 0 min 0,0 km/h (0 Bft)
08.11.2009 14:30 16,6 C 12,0 C 1,4 UV-I 2,6 C 53 % 74 % 74 % 1008,9 hPa 0,0 l/m 0,2 km/h (0 Bft) 2 min 0,0 km/h (0 Bft)
08.11.2009 14:32 16,7 C 12,1 C 1,4 UV-I 2,9 C 53 % 74 % 83 % 1008,9 hPa 0,0 l/m 0,0 km/h (0 Bft) 2 min 0,0 km/h (0 Bft)
08.11.2009 14:34 16,7 C 12,1 C 1,4 UV-I 3,3 C 53 % 74 % 94 % 1008,2 hPa 0,0 l/m 0,0 km/h (0 Bft) 2 min 0,0 km/h (0 Bft)
08.11.2009 14:36 16,7 C 12,3 C 1,4 UV-I 3,6 C 53 % 75 % 100 % 1008,2 hPa 0,0 l/m 0,0 km/h (0 Bft) 2 min 0,0 km/h (0 Bft)
08.11.2009 14:38 16,7 C 12,2 C 1,4 UV-I 4,3 C 53 % 74 % 100 % 1008,2 hPa 0,0 l/m 0,0 km/h (0 Bft) 2 min 0,0 km/h (0 Bft)
08.11.2009 14:40 16,8 C 12,4 C 1,4 UV-I 4,6 C 53 % 74 % 100 % 1008,2 hPa 0,0 l/m 0,0 km/h (0 Bft) 2 min 0,0 km/h (0 Bft)
08.11.2009 14:42 16,8 C 12,5 C 1,4 UV-I 4,9 C 53 % 74 % 100 % 1008,2 hPa 0,0 l/m 0,0 km/h (0 Bft) 2 min 0,0 km/h (0 Bft)
08.11.2009 14:44 16,8 C 12,4 C 1,2 UV-I 5,2 C 53 % 74 % 100 % 1008,2 hPa 0,0 l/m 0,0 km/h (0 Bft) 2 min 2,9 km/h (1 Bft)
08.11.2009 14:46 16,8 C 12,5 C 1,2 UV-I 5,1 C 53 % 73 % 100 % 1008,2 hPa 0,0 l/m 0,2 km/h (0 Bft) 2 min 2,9 km/h (1 Bft)
08.11.2009 14:48 16,8 C 12,4 C 1,2 UV-I 5,1 C 53 % 73 % 100 % 1008,2 hPa 0,0 l/m 0,2 km/h (0 Bft) 2 min 0,0 km/h (0 Bft)
08.11.2009 14:50 16,8 C 12,5 C 1,1 UV-I 4,7 C 53 % 73 % 100 % 1008,2 hPa 0,0 l/m 0,2 km/h (0 Bft) 2 min 0,0 km/h (0 Bft)
08.11.2009 14:52 16,8 C 12,4 C 1,1 UV-I 4,5 C 52 % 73 % 100 % 1008,2 hPa 0,0 l/m 0,5 km/h (0 Bft) 2 min 4,1 km/h (1 Bft)
08.11.2009 14:54 16,8 C 12,4 C 1,1 UV-I 4,5 C 53 % 72 % 100 % 1007,4 hPa 0,0 l/m 1,0 km/h (0 Bft) 2 min 4,1 km/h (1 Bft)
08.11.2009 14:56 16,9 C 12,3 C 1,1 UV-I 4,2 C 52 % 72 % 100 % 1007,4 hPa 0,0 l/m 1,4 km/h (1 Bft) 2 min 4,1 km/h (1 Bft)
08.11.2009 14:58 16,9 C 12,1 C 1,1 UV-I 4,1 C 52 % 72 % 100 % 1007,4 hPa 0,0 l/m 2,2 km/h (1 Bft) 2 min 5,5 km/h (1 Bft)
08.11.2009 15:00 16,9 C 12,0 C 0,9 UV-I 3,7 C 53 % 72 % 100 % 1007,4 hPa 0,0 l/m 2,6 km/h (1 Bft) 2 min 5,5 km/h (1 Bft)
08.11.2009 15:02 16,9 C 12,0 C 0,9 UV-I 3,2 C 52 % 72 % 91 % 1007,4 hPa 0,0 l/m 3,6 km/h (1 Bft) 2 min 7,7 km/h (2 Bft)
08.11.2009 15:04 16,9 C 11,9 C 0,9 UV-I 2,7 C 52 % 72 % 77 % 1007,4 hPa 0,0 l/m 3,8 km/h (1 Bft) 2 min 7,2 km/h (2 Bft)
08.11.2009 15:06 16,9 C 11,8 C 0,9 UV-I 2,0 C 52 % 73 % 57 % 1007,4 hPa 0,0 l/m 3,1 km/h (1 Bft) 2 min 3,4 km/h (1 Bft)
08.11.2009 15:08 16,9 C 11,7 C 0,9 UV-I 1,4 C 52 % 73 % 40 % 1007,4 hPa 0,0 l/m 2,6 km/h (1 Bft) 0 min 3,8 km/h (1 Bft)
08.11.2009 15:10 16,9 C 11,7 C 0,8 UV-I 1,0 C 52 % 73 % 29 % 1007,4 hPa 0,0 l/m 2,4 km/h (1 Bft) 0 min 3,8 km/h (1 Bft)
08.11.2009 15:12 16,9 C 11,6 C 0,8 UV-I 0,6 C 52 % 73 % 17 % 1007,4 hPa 0,0 l/m 2,2 km/h (1 Bft) 0 min 4,6 km/h (1 Bft)
08.11.2009 15:14 16,9 C 11,5 C 0,8 UV-I 0,3 C 52 % 73 % 9 % 1007,4 hPa 0,0 l/m 1,7 km/h (1 Bft) 0 min 4,6 km/h (1 Bft)
08.11.2009 15:16 16,9 C 11,4 C 0,8 UV-I 0,1 C 52 % 74 % 3 % 1007,4 hPa 0,0 l/m 1,9 km/h (1 Bft) 0 min 4,3 km/h (1 Bft)
08.11.2009 15:18 16,9 C 11,4 C 0,8 UV-I 0,0 C 52 % 74 % 0 % 1007,4 hPa 0,0 l/m 2,6 km/h (1 Bft) 0 min 4,3 km/h (1 Bft)
08.11.2009 15:20 16,9 C 11,3 C 0,7 UV-I 0,0 C 52 % 75 % 0 % 1007,4 hPa 0,0 l/m 2,4 km/h (1 Bft) 0 min 3,4 km/h (1 Bft)
08.11.2009 15:22 16,9 C 11,2 C 0,7 UV-I 0,0 C 52 % 76 % 0 % 1007,4 hPa 0,0 l/m 2,2 km/h (1 Bft) 0 min 3,1 km/h (1 Bft)
08.11.2009 15:24 16,8 C 11,2 C 0,7 UV-I 0,6 C 52 % 76 % 17 % 1007,4 hPa 0,0 l/m 2,2 km/h (1 Bft) 0 min 4,3 km/h (1 Bft)
08.11.2009 15:26 16,9 C 11,2 C 0,7 UV-I 0,9 C 52 % 76 % 26 % 1007,4 hPa 0,0 l/m 2,6 km/h (1 Bft) 0 min 6,3 km/h (2 Bft)
08.11.2009 15:28 16,8 C 11,1 C 0,7 UV-I 1,3 C 52 % 76 % 37 % 1007,4 hPa 0,0 l/m 2,9 km/h (1 Bft) 0 min 6,3 km/h (2 Bft)
08.11.2009 15:30 16,8 C 11,1 C 0,7 UV-I 1,6 C 52 % 76 % 46 % 1007,4 hPa 0,0 l/m 3,6 km/h (1 Bft) 2 min 5,8 km/h (2 Bft)
08.11.2009 15:32 16,8 C 11,1 C 0,7 UV-I 1,6 C 52 % 76 % 46 % 1007,4 hPa 0,0 l/m 4,3 km/h (1 Bft) 2 min 9,6 km/h (2 Bft)
08.11.2009 15:34 16,8 C 10,9 C 0,4 UV-I 1,9 C 52 % 77 % 54 % 1007,2 hPa 0,0 l/m 4,6 km/h (1 Bft) 2 min 6,7 km/h (2 Bft)
08.11.2009 15:36 16,8 C 10,9 C 0,4 UV-I 2,0 C 53 % 77 % 57 % 1007,2 hPa 0,0 l/m 4,6 km/h (1 Bft) 2 min 6,7 km/h (2 Bft)
08.11.2009 15:38 16,8 C 10,9 C 0,4 UV-I 2,0 C 52 % 77 % 57 % 1007,2 hPa 0,0 l/m 4,3 km/h (1 Bft) 2 min 4,8 km/h (1 Bft)
08.11.2009 15:40 16,8 C 10,9 C 0,4 UV-I 2,0 C 52 % 77 % 57 % 1007,2 hPa 0,0 l/m 3,8 km/h (1 Bft) 2 min 5,5 km/h (1 Bft)
08.11.2009 15:42 16,8 C 10,8 C 0,4 UV-I 2,1 C 52 % 77 % 60 % 1007,2 hPa 0,0 l/m 3,8 km/h (1 Bft) 2 min 5,5 km/h (1 Bft)
08.11.2009 15:44 16,8 C 10,8 C 0,5 UV-I 1,7 C 53 % 77 % 49 % 1007,2 hPa 0,0 l/m 3,6 km/h (1 Bft) 2 min 3,8 km/h (1 Bft)
08.11.2009 15:46 16,8 C 10,7 C 0,5 UV-I 1,4 C 53 % 77 % 40 % 1007,2 hPa 0,0 l/m 3,1 km/h (1 Bft) 2 min 3,8 km/h (1 Bft)
08.11.2009 15:48 16,8 C 10,7 C 0,5 UV-I 1,1 C 53 % 77 % 31 % 1007,2 hPa 0,0 l/m 3,1 km/h (1 Bft) 0 min 4,6 km/h (1 Bft)
08.11.2009 15:50 16,8 C 10,7 C 0,5 UV-I 0,9 C 53 % 78 % 26 % 1007,2 hPa 0,0 l/m 3,1 km/h (1 Bft) 0 min 4,6 km/h (1 Bft)
08.11.2009 15:52 16,8 C 10,7 C 0,5 UV-I 0,7 C 53 % 78 % 20 % 1007,2 hPa 0,0 l/m 3,1 km/h (1 Bft) 0 min 6,0 km/h (2 Bft)
08.11.2009 15:54 16,8 C 10,5 C 0,5 UV-I 0,8 C 53 % 78 % 23 % 1007,2 hPa 0,0 l/m 3,1 km/h (1 Bft) 0 min 6,0 km/h (2 Bft)
08.11.2009 15:56 16,7 C 10,5 C 0,5 UV-I 0,6 C 52 % 78 % 17 % 1007,2 hPa 0,0 l/m 3,4 km/h (1 Bft) 0 min 4,8 km/h (1 Bft)
08.11.2009 15:58 16,7 C 10,5 C 0,5 UV-I 0,4 C 52 % 78 % 11 % 1007,2 hPa 0,0 l/m 4,1 km/h (1 Bft) 0 min 5,5 km/h (1 Bft)
08.11.2009 16:00 16,7 C 10,5 C 0,3 UV-I 0,2 C 52 % 79 % 6 % 1007,2 hPa 0,0 l/m 4,1 km/h (1 Bft) 0 min 5,5 km/h (1 Bft)
08.11.2009 16:02 16,7 C 10,4 C 0,3 UV-I 0,2 C 52 % 79 % 6 % 1007,2 hPa 0,0 l/m 4,1 km/h (1 Bft) 0 min 4,8 km/h (1 Bft)
08.11.2009 16:04 16,7 C 10,4 C 0,3 UV-I 0,0 C 52 % 79 % 0 % 1007,2 hPa 0,0 l/m 3,8 km/h (1 Bft) 0 min 4,8 km/h (1 Bft)
08.11.2009 16:06 16,6 C 10,4 C 0,3 UV-I 0,0 C 52 % 79 % 0 % 1007,2 hPa 0,0 l/m 3,8 km/h (1 Bft) 0 min 5,5 km/h (1 Bft)
08.11.2009 16:08 16,6 C 10,3 C 0,3 UV-I 0,0 C 52 % 79 % 0 % 1007,2 hPa 0,0 l/m 3,8 km/h (1 Bft) 0 min 5,5 km/h (1 Bft)
08.11.2009 16:10 16,6 C 10,3 C 0,3 UV-I 0,0 C 52 % 79 % 0 % 1007,2 hPa 0,0 l/m 3,4 km/h (1 Bft) 0 min 5,1 km/h (1 Bft)
08.11.2009 16:12 16,6 C 10,2 C 0,3 UV-I 0,0 C 52 % 79 % 0 % 1007,2 hPa 0,0 l/m 3,4 km/h (1 Bft) 0 min 5,1 km/h (1 Bft)
08.11.2009 16:14 16,6 C 10,3 C 0,2 UV-I 0,0 C 52 % 79 % 0 % 1007,1 hPa 0,0 l/m 3,1 km/h (1 Bft) 0 min 4,8 km/h (1 Bft)
08.11.2009 16:16 16,6 C 10,3 C 0,2 UV-I 0,0 C 52 % 79 % 0 % 1007,1 hPa 0,0 l/m 2,6 km/h (1 Bft) 0 min 4,8 km/h (1 Bft)
08.11.2009 16:18 16,6 C 10,2 C 0,2 UV-I 0,0 C 53 % 79 % 0 % 1007,1 hPa 0,0 l/m 2,2 km/h (1 Bft) 0 min 2,4 km/h (1 Bft)
08.11.2009 16:20 16,6 C 10,2 C 0,1 UV-I 0,0 C 53 % 79 % 0 % 1007,1 hPa 0,0 l/m 1,9 km/h (1 Bft) 0 min 2,6 km/h (1 Bft)
08.11.2009 16:22 16,5 C 10,1 C 0,1 UV-I 0,0 C 53 % 79 % 0 % 1007,1 hPa 0,0 l/m 1,7 km/h (1 Bft) 0 min 2,6 km/h (1 Bft)
08.11.2009 16:24 16,5 C 10,1 C 0,0 UV-I 0,0 C 53 % 80 % 0 % 1007,1 hPa 0,0 l/m 1,7 km/h (1 Bft) 0 min 4,1 km/h (1 Bft)
08.11.2009 16:26 16,5 C 10,1 C 0,0 UV-I 0,0 C 53 % 80 % 0 % 1007,1 hPa 0,0 l/m 1,4 km/h (1 Bft) 0 min 4,1 km/h (1 Bft)
08.11.2009 16:28 16,5 C 10,1 C 0,0 UV-I 0,0 C 53 % 80 % 0 % 1007,1 hPa 0,0 l/m 1,7 km/h (1 Bft) 0 min 0,0 km/h (0 Bft)
08.11.2009 16:30 16,5 C 10,1 C 0,0 UV-I 0,0 C 53 % 80 % 0 % 1007,1 hPa 0,0 l/m 1,7 km/h (1 Bft) 0 min 2,9 km/h (1 Bft)
08.11.2009 16:32 16,5 C 10,1 C 0,0 UV-I 0,0 C 53 % 80 % 0 % 1007,1 hPa 0,0 l/m 1,7 km/h (1 Bft) 0 min 3,1 km/h (1 Bft)
08.11.2009 16:34 16,4 C 10,0 C 0,0 UV-I 0,0 C 53 % 80 % 0 % 1007,2 hPa 0,0 l/m 1,9 km/h (1 Bft) 0 min 3,1 km/h (1 Bft)
08.11.2009 16:36 16,4 C 10,0 C 0,0 UV-I 0,0 C 53 % 80 % 0 % 1007,2 hPa 0,0 l/m 1,9 km/h (1 Bft) 0 min 3,8 km/h (1 Bft)
08.11.2009 16:38 16,4 C 10,0 C 0,0 UV-I 0,0 C 53 % 80 % 0 % 1007,2 hPa 0,0 l/m 2,2 km/h (1 Bft) 0 min 3,8 km/h (1 Bft)
08.11.2009 16:40 16,4 C 9,9 C 0,0 UV-I 0,0 C 53 % 80 % 0 % 1007,2 hPa 0,0 l/m 2,4 km/h (1 Bft) 0 min 3,1 km/h (1 Bft)
08.11.2009 16:42 16,4 C 9,9 C 0,0 UV-I 0,0 C 53 % 80 % 0 % 1007,2 hPa 0,0 l/m 2,4 km/h (1 Bft) 0 min 3,8 km/h (1 Bft)
08.11.2009 16:44 16,4 C 9,9 C 0,0 UV-I 0,0 C 53 % 80 % 0 % 1007,2 hPa 0,0 l/m 2,4 km/h (1 Bft) 0 min 3,8 km/h (1 Bft)
08.11.2009 16:46 16,4 C 9,9 C 0,0 UV-I 0,0 C 53 % 80 % 0 % 1007,2 hPa 0,0 l/m 2,4 km/h (1 Bft) 0 min 3,8 km/h (1 Bft)
08.11.2009 16:48 16,4 C 9,7 C 0,0 UV-I 0,0 C 53 % 80 % 0 % 1007,2 hPa 0,0 l/m 2,4 km/h (1 Bft) 0 min 4,3 km/h (1 Bft)
08.11.2009 16:50 16,4 C 9,6 C 0,0 UV-I 0,0 C 53 % 80 % 0 % 1007,2 hPa 0,0 l/m 2,4 km/h (1 Bft) 0 min 4,3 km/h (1 Bft)
08.11.2009 16:52 16,4 C 9,6 C 0,0 UV-I 0,0 C 53 % 80 % 0 % 1007,2 hPa 0,0 l/m 2,4 km/h (1 Bft) 0 min 3,6 km/h (1 Bft)
08.11.2009 16:54 16,2 C 9,7 C 0,0 UV-I 0,0 C 53 % 80 % 0 % 1007,2 hPa 0,0 l/m 2,4 km/h (1 Bft) 0 min 3,8 km/h (1 Bft)
08.11.2009 16:56 16,4 C 9,6 C 0,0 UV-I 0,0 C 53 % 80 % 0 % 1007,2 hPa 0,0 l/m 2,9 km/h (1 Bft) 0 min 4,8 km/h (1 Bft)
08.11.2009 16:58 16,2 C 9,5 C 0,0 UV-I 0,0 C 53 % 80 % 0 % 1007,2 hPa 0,0 l/m 2,6 km/h (1 Bft) 0 min 4,8 km/h (1 Bft)
08.11.2009 17:00 16,2 C 9,5 C 0,0 UV-I 0,0 C 53 % 81 % 0 % 1007,2 hPa 0,0 l/m 2,4 km/h (1 Bft) 0 min 2,6 km/h (1 Bft)
08.11.2009 17:02 16,3 C 9,4 C 0,0 UV-I 0,0 C 53 % 81 % 0 % 1007,2 hPa 0,0 l/m 2,4 km/h (1 Bft) 0 min 3,6 km/h (1 Bft)
08.11.2009 17:04 16,3 C 9,5 C 0,0 UV-I 0,0 C 53 % 81 % 0 % 1007,2 hPa 0,0 l/m 2,4 km/h (1 Bft) 0 min 3,6 km/h (1 Bft)
08.11.2009 17:06 16,3 C 9,4 C 0,0 UV-I 0,0 C 53 % 81 % 0 % 1007,2 hPa 0,0 l/m 2,4 km/h (1 Bft) 0 min 3,8 km/h (1 Bft)
08.11.2009 17:08 16,3 C 9,4 C 0,0 UV-I 0,0 C 53 % 81 % 0 % 1007,2 hPa 0,0 l/m 2,4 km/h (1 Bft) 0 min 4,3 km/h (1 Bft)
08.11.2009 17:10 16,2 C 9,3 C 0,0 UV-I 0,0 C 53 % 81 % 0 % 1007,2 hPa 0,0 l/m 2,4 km/h (1 Bft) 0 min 4,3 km/h (1 Bft)
08.11.2009 17:12 16,2 C 9,3 C 0,0 UV-I 0,0 C 53 % 81 % 0 % 1007,2 hPa 0,0 l/m 2,4 km/h (1 Bft) 0 min 5,1 km/h (1 Bft)
08.11.2009 17:14 16,2 C 9,2 C 0,0 UV-I 0,0 C 53 % 81 % 0 % 1007,6 hPa 0,0 l/m 2,4 km/h (1 Bft) 0 min 5,1 km/h (1 Bft)
08.11.2009 17:16 16,2 C 9,2 C 0,0 UV-I 0,0 C 53 % 81 % 0 % 1007,6 hPa 0,0 l/m 2,9 km/h (1 Bft) 0 min 4,1 km/h (1 Bft)
08.11.2009 17:18 16,2 C 9,3 C 0,0 UV-I 0,0 C 53 % 81 % 0 % 1007,6 hPa 0,0 l/m 2,9 km/h (1 Bft) 0 min 5,3 km/h (1 Bft)
08.11.2009 17:20 16,2 C 9,2 C 0,0 UV-I 0,0 C 53 % 81 % 0 % 1007,6 hPa 0,0 l/m 2,9 km/h (1 Bft) 0 min 5,3 km/h (1 Bft)
08.11.2009 17:22 16,2 C 9,2 C 0,0 UV-I 0,0 C 53 % 81 % 0 % 1007,6 hPa 0,0 l/m 3,4 km/h (1 Bft) 0 min 4,3 km/h (1 Bft)
08.11.2009 17:24 16,2 C 9,1 C 0,0 UV-I 0,0 C 53 % 81 % 0 % 1007,6 hPa 0,0 l/m 3,1 km/h (1 Bft) 0 min 3,8 km/h (1 Bft)
08.11.2009 17:26 16,2 C 9,1 C 0,0 UV-I 0,0 C 53 % 81 % 0 % 1007,6 hPa 0,0 l/m 2,9 km/h (1 Bft) 0 min 3,4 km/h (1 Bft)
08.11.2009 17:28 16,1 C 9,1 C 0,0 UV-I 0,0 C 53 % 81 % 0 % 1007,6 hPa 0,0 l/m 2,9 km/h (1 Bft) 0 min 6,3 km/h (2 Bft)
08.11.2009 17:30 16,1 C 9,1 C 0,0 UV-I 0,0 C 53 % 81 % 0 % 1007,6 hPa 0,0 l/m 2,9 km/h (1 Bft) 0 min 6,3 km/h (2 Bft)
08.11.2009 17:32 16,1 C 9,0 C 0,0 UV-I 0,0 C 53 % 81 % 0 % 1007,6 hPa 0,0 l/m 2,9 km/h (1 Bft) 0 min 3,8 km/h (1 Bft)
08.11.2009 17:34 16,1 C 9,0 C 0,0 UV-I 0,0 C 54 % 82 % 0 % 1007,9 hPa 0,0 l/m 2,6 km/h (1 Bft) 0 min 3,4 km/h (1 Bft)
08.11.2009 17:36 16,1 C 9,1 C 0,0 UV-I 0,0 C 54 % 82 % 0 % 1007,9 hPa 0,0 l/m 2,9 km/h (1 Bft) 0 min 3,6 km/h (1 Bft)
08.11.2009 17:38 16,1 C 9,1 C 0,0 UV-I 0,0 C 54 % 82 % 0 % 1007,9 hPa 0,0 l/m 2,9 km/h (1 Bft) 0 min 3,6 km/h (1 Bft)
08.11.2009 17:40 15,9 C 9,1 C 0,0 UV-I 0,0 C 54 % 82 % 0 % 1007,9 hPa 0,0 l/m 2,4 km/h (1 Bft) 0 min 4,1 km/h (1 Bft)
08.11.2009 17:42 15,9 C 9,1 C 0,0 UV-I 0,0 C 54 % 82 % 0 % 1007,9 hPa 0,0 l/m 2,4 km/h (1 Bft) 0 min 4,1 km/h (1 Bft)
08.11.2009 17:44 15,9 C 9,1 C 0,0 UV-I 0,0 C 54 % 82 % 0 % 1007,9 hPa 0,0 l/m 2,4 km/h (1 Bft) 0 min 4,8 km/h (1 Bft)
08.11.2009 17:46 15,9 C 8,9 C 0,0 UV-I 0,0 C 54 % 82 % 0 % 1007,9 hPa 0,0 l/m 2,2 km/h (1 Bft) 0 min 4,8 km/h (1 Bft)
08.11.2009 17:48 16,0 C 8,9 C 0,0 UV-I 0,0 C 54 % 82 % 0 % 1007,9 hPa 0,0 l/m 1,7 km/h (1 Bft) 0 min 0,0 km/h (0 Bft)
08.11.2009 17:52 16,0 C 8,9 C 0,0 UV-I 0,0 C 54 % 83 % 0 % 1007,9 hPa 0,0 l/m 1,7 km/h (1 Bft) 0 min 3,6 km/h (1 Bft)
08.11.2009 17:54 16,0 C 8,9 C 0,0 UV-I 0,0 C 54 % 83 % 0 % 1008,1 hPa 0,0 l/m 1,9 km/h (1 Bft) 0 min 4,3 km/h (1 Bft)
08.11.2009 17:56 16,0 C 8,9 C 0,0 UV-I 0,0 C 54 % 83 % 0 % 1008,1 hPa 0,0 l/m 1,7 km/h (1 Bft) 0 min 4,3 km/h (1 Bft)
08.11.2009 17:58 16,0 C 8,8 C 0,0 UV-I 0,0 C 54 % 83 % 0 % 1008,1 hPa 0,0 l/m 1,9 km/h (1 Bft) 0 min 4,1 km/h (1 Bft)
08.11.2009 18:00 16,0 C 8,8 C 0,0 UV-I 0,0 C 54 % 83 % 0 % 1008,1 hPa 0,0 l/m 2,2 km/h (1 Bft) 0 min 3,6 km/h (1 Bft)
08.11.2009 18:02 15,8 C 8,9 C 0,0 UV-I 0,0 C 54 % 83 % 0 % 1008,1 hPa 0,0 l/m 2,2 km/h (1 Bft) 0 min 3,6 km/h (1 Bft)
08.11.2009 18:04 15,8 C 8,8 C 0,0 UV-I 0,0 C 54 % 83 % 0 % 1008,1 hPa 0,0 l/m 1,7 km/h (1 Bft) 0 min 3,6 km/h (1 Bft)
08.11.2009 18:06 15,8 C 8,8 C 0,0 UV-I 0,0 C 54 % 83 % 0 % 1008,1 hPa 0,0 l/m 1,7 km/h (1 Bft) 0 min 4,6 km/h (1 Bft)
08.11.2009 18:08 15,9 C 8,8 C 0,0 UV-I 0,0 C 54 % 83 % 0 % 1008,1 hPa 0,0 l/m 1,7 km/h (1 Bft) 0 min 4,6 km/h (1 Bft)
08.11.2009 18:10 15,9 C 8,7 C 0,0 UV-I 0,0 C 54 % 83 % 0 % 1008,1 hPa 0,0 l/m 1,7 km/h (1 Bft) 0 min 6,0 km/h (2 Bft)
08.11.2009 18:12 15,9 C 8,7 C 0,0 UV-I 0,0 C 54 % 83 % 0 % 1008,1 hPa 0,0 l/m 1,7 km/h (1 Bft) 0 min 6,0 km/h (2 Bft)
08.11.2009 18:14 15,8 C 8,7 C 0,0 UV-I 0,0 C 54 % 84 % 0 % 1008,6 hPa 0,0 l/m 1,9 km/h (1 Bft) 0 min 5,1 km/h (1 Bft)
08.11.2009 18:16 15,8 C 8,7 C 0,0 UV-I 0,0 C 54 % 84 % 0 % 1008,6 hPa 0,0 l/m 1,9 km/h (1 Bft) 0 min 5,1 km/h (1 Bft)
08.11.2009 18:18 15,8 C 8,6 C 0,0 UV-I 0,0 C 54 % 84 % 0 % 1008,6 hPa 0,0 l/m 1,9 km/h (1 Bft) 0 min 4,1 km/h (1 Bft)
08.11.2009 18:20 15,8 C 8,7 C 0,0 UV-I 0,0 C 54 % 84 % 0 % 1008,6 hPa 0,0 l/m 1,9 km/h (1 Bft) 0 min 4,1 km/h (1 Bft)
08.11.2009 18:22 15,8 C 8,7 C 0,0 UV-I 0,0 C 54 % 84 % 0 % 1008,6 hPa 0,0 l/m 1,9 km/h (1 Bft) 0 min 4,1 km/h (1 Bft)
08.11.2009 18:24 15,8 C 8,7 C 0,0 UV-I 0,0 C 54 % 84 % 0 % 1008,6 hPa 0,0 l/m 2,2 km/h (1 Bft) 0 min 3,1 km/h (1 Bft)
08.11.2009 18:26 15,8 C 8,7 C 0,0 UV-I 0,0 C 54 % 84 % 0 % 1008,6 hPa 0,0 l/m 1,9 km/h (1 Bft) 0 min 2,6 km/h (1 Bft)
08.11.2009 18:28 15,8 C 8,7 C 0,0 UV-I 0,0 C 54 % 84 % 0 % 1008,6 hPa 0,0 l/m 1,9 km/h (1 Bft) 0 min 2,6 km/h (1 Bft)
08.11.2009 18:30 15,8 C 8,7 C 0,0 UV-I 0,0 C 54 % 84 % 0 % 1008,6 hPa 0,0 l/m 1,9 km/h (1 Bft) 0 min 2,6 km/h (1 Bft)
08.11.2009 18:32 15,8 C 8,7 C 0,0 UV-I 0,0 C 54 % 85 % 0 % 1008,6 hPa 0,0 l/m 1,9 km/h (1 Bft) 0 min 3,4 km/h (1 Bft)
08.11.2009 18:36 15,8 C 8,6 C 0,0 UV-I 0,0 C 54 % 85 % 0 % 1008,6 hPa 0,0 l/m 2,6 km/h (1 Bft) 0 min 6,7 km/h (2 Bft)
08.11.2009 18:38 15,8 C 8,5 C 0,0 UV-I 0,0 C 54 % 85 % 0 % 1008,6 hPa 0,0 l/m 2,9 km/h (1 Bft) 0 min 6,7 km/h (2 Bft)
08.11.2009 18:40 15,8 C 8,5 C 0,0 UV-I 0,0 C 55 % 85 % 0 % 1008,6 hPa 0,0 l/m 3,4 km/h (1 Bft) 0 min 4,8 km/h (1 Bft)
08.11.2009 18:42 15,8 C 8,5 C 0,0 UV-I 0,0 C 55 % 86 % 0 % 1008,6 hPa 0,0 l/m 4,6 km/h (1 Bft) 0 min 9,4 km/h (2 Bft)
08.11.2009 18:44 15,8 C 8,5 C 0,0 UV-I 0,0 C 55 % 86 % 0 % 1008,6 hPa 0,0 l/m 4,8 km/h (1 Bft) 0 min 9,4 km/h (2 Bft)
08.11.2009 18:46 15,8 C 8,5 C 0,0 UV-I 0,0 C 55 % 86 % 0 % 1008,6 hPa 0,0 l/m 4,8 km/h (1 Bft) 0 min 6,7 km/h (2 Bft)
08.11.2009 18:48 15,8 C 8,5 C 0,0 UV-I 0,0 C 55 % 86 % 0 % 1008,6 hPa 0,0 l/m 4,8 km/h (1 Bft) 0 min 5,1 km/h (1 Bft)
08.11.2009 18:50 15,8 C 8,5 C 0,0 UV-I 0,0 C 55 % 86 % 0 % 1008,6 hPa 0,0 l/m 4,8 km/h (1 Bft) 0 min 5,3 km/h (1 Bft)
08.11.2009 18:52 15,8 C 8,5 C 0,0 UV-I 0,0 C 55 % 86 % 0 % 1008,6 hPa 0,0 l/m 4,6 km/h (1 Bft) 0 min 10,1 km/h (2 Bft)
08.11.2009 18:54 15,8 C 8,5 C 0,0 UV-I 0,0 C 55 % 87 % 0 % 1008,8 hPa 0,0 l/m 3,8 km/h (1 Bft) 0 min 9,4 km/h (2 Bft)
08.11.2009 18:56 15,8 C 8,4 C 0,0 UV-I 0,0 C 55 % 87 % 0 % 1008,8 hPa 0,0 l/m 3,8 km/h (1 Bft) 0 min 4,1 km/h (1 Bft)
08.11.2009 18:58 15,8 C 8,4 C 0,0 UV-I 0,0 C 55 % 87 % 0 % 1008,8 hPa 0,0 l/m 3,6 km/h (1 Bft) 0 min 4,1 km/h (1 Bft)
08.11.2009 19:00 15,8 C 8,4 C 0,0 UV-I 0,0 C 55 % 87 % 0 % 1008,8 hPa 0,0 l/m 3,1 km/h (1 Bft) 0 min 2,9 km/h (1 Bft)
08.11.2009 19:02 15,8 C 8,4 C 0,0 UV-I 0,0 C 55 % 87 % 0 % 1008,8 hPa 0,0 l/m 3,1 km/h (1 Bft) 0 min 4,3 km/h (1 Bft)
08.11.2009 19:04 15,8 C 8,4 C 0,0 UV-I 0,0 C 55 % 87 % 0 % 1008,8 hPa 0,0 l/m 2,9 km/h (1 Bft) 0 min 9,1 km/h (2 Bft)
08.11.2009 19:06 15,8 C 8,5 C 0,0 UV-I 0,0 C 55 % 87 % 0 % 1008,8 hPa 0,0 l/m 3,4 km/h (1 Bft) 0 min 9,1 km/h (2 Bft)
08.11.2009 19:08 15,8 C 8,4 C 0,0 UV-I 0,0 C 55 % 87 % 0 % 1008,8 hPa 0,0 l/m 2,9 km/h (1 Bft) 0 min 5,3 km/h (1 Bft)
08.11.2009 19:10 15,8 C 8,3 C 0,0 UV-I 0,0 C 55 % 87 % 0 % 1008,8 hPa 0,0 l/m 3,1 km/h (1 Bft) 0 min 5,3 km/h (1 Bft)
08.11.2009 19:12 15,8 C 8,3 C 0,0 UV-I 0,0 C 55 % 87 % 0 % 1008,8 hPa 0,0 l/m 3,6 km/h (1 Bft) 0 min 7,0 km/h (2 Bft)
08.11.2009 19:14 15,8 C 8,3 C 0,0 UV-I 0,0 C 55 % 87 % 0 % 1009,1 hPa 0,0 l/m 3,8 km/h (1 Bft) 0 min 6,3 km/h (2 Bft)
08.11.2009 19:18 15,8 C 8,1 C 0,0 UV-I 0,0 C 55 % 87 % 0 % 1009,1 hPa 0,0 l/m 3,6 km/h (1 Bft) 0 min 6,3 km/h (2 Bft)
08.11.2009 19:22 15,8 C 8,0 C 0,0 UV-I 0,0 C 55 % 87 % 0 % 1009,1 hPa 0,0 l/m 4,1 km/h (1 Bft) 0 min 4,1 km/h (1 Bft)
08.11.2009 19:24 15,8 C 8,1 C 0,0 UV-I 0,0 C 55 % 87 % 0 % 1009,1 hPa 0,0 l/m 4,3 km/h (1 Bft) 0 min 7,0 km/h (2 Bft)
08.11.2009 19:26 15,9 C 8,0 C 0,0 UV-I 0,0 C 55 % 87 % 0 % 1009,1 hPa 0,0 l/m 4,6 km/h (1 Bft) 0 min 7,0 km/h (2 Bft)
08.11.2009 19:28 15,9 C 7,9 C 0,0 UV-I 0,0 C 55 % 87 % 0 % 1009,1 hPa 0,0 l/m 4,8 km/h (1 Bft) 0 min 6,5 km/h (2 Bft)
08.11.2009 19:30 15,8 C 7,9 C 0,0 UV-I 0,0 C 55 % 87 % 0 % 1009,1 hPa 0,0 l/m 5,1 km/h (1 Bft) 0 min 6,5 km/h (2 Bft)
08.11.2009 19:32 15,9 C 7,8 C 0,0 UV-I 0,0 C 55 % 88 % 0 % 1009,1 hPa 0,0 l/m 5,3 km/h (1 Bft) 0 min 11,3 km/h (2 Bft)
08.11.2009 19:34 15,8 C 7,9 C 0,0 UV-I 0,0 C 55 % 88 % 0 % 1009,0 hPa 0,0 l/m 5,3 km/h (1 Bft) 0 min 4,8 km/h (1 Bft)
08.11.2009 19:36 15,9 C 7,7 C 0,0 UV-I 0,0 C 55 % 88 % 0 % 1009,0 hPa 0,0 l/m 4,6 km/h (1 Bft) 0 min 6,5 km/h (2 Bft)
08.11.2009 19:38 15,8 C 7,7 C 0,0 UV-I 0,0 C 55 % 88 % 0 % 1009,0 hPa 0,0 l/m 4,3 km/h (1 Bft) 0 min 6,5 km/h (2 Bft)
08.11.2009 19:40 15,9 C 7,7 C 0,0 UV-I 0,0 C 55 % 88 % 0 % 1009,0 hPa 0,0 l/m 4,1 km/h (1 Bft) 0 min 5,3 km/h (1 Bft)
08.11.2009 19:42 15,8 C 7,6 C 0,0 UV-I 0,0 C 55 % 88 % 0 % 1009,0 hPa 0,0 l/m 4,3 km/h (1 Bft) 0 min 9,4 km/h (2 Bft)
08.11.2009 19:44 15,8 C 7,7 C 0,0 UV-I 0,0 C 55 % 88 % 0 % 1009,0 hPa 0,0 l/m 4,1 km/h (1 Bft) 0 min 9,4 km/h (2 Bft)
08.11.2009 19:46 15,8 C 7,6 C 0,0 UV-I 0,0 C 55 % 88 % 0 % 1009,0 hPa 0,0 l/m 4,1 km/h (1 Bft) 0 min 4,3 km/h (1 Bft)
08.11.2009 19:50 15,9 C 7,5 C 0,0 UV-I 0,0 C 55 % 88 % 0 % 1009,0 hPa 0,0 l/m 4,1 km/h (1 Bft) 0 min 5,1 km/h (1 Bft)
08.11.2009 19:52 15,8 C 7,5 C 0,0 UV-I 0,0 C 55 % 88 % 0 % 1009,0 hPa 0,0 l/m 3,6 km/h (1 Bft) 0 min 5,1 km/h (1 Bft)
08.11.2009 19:54 15,8 C 7,5 C 0,0 UV-I 0,0 C 55 % 88 % 0 % 1009,1 hPa 0,0 l/m 3,4 km/h (1 Bft) 0 min 6,7 km/h (2 Bft)
08.11.2009 19:56 15,8 C 7,5 C 0,0 UV-I 0,0 C 55 % 89 % 0 % 1009,1 hPa 0,0 l/m 3,6 km/h (1 Bft) 0 min 6,7 km/h (2 Bft)
08.11.2009 19:58 15,8 C 7,5 C 0,0 UV-I 0,0 C 55 % 89 % 0 % 1009,1 hPa 0,0 l/m 3,6 km/h (1 Bft) 0 min 6,0 km/h (2 Bft)
08.11.2009 20:00 15,8 C 7,4 C 0,0 UV-I 0,0 C 55 % 89 % 0 % 1009,1 hPa 0,0 l/m 4,1 km/h (1 Bft) 0 min 6,0 km/h (2 Bft)
08.11.2009 20:02 15,8 C 7,3 C 0,0 UV-I 0,0 C 55 % 89 % 0 % 1009,1 hPa 0,0 l/m 4,1 km/h (1 Bft) 0 min 5,1 km/h (1 Bft)
08.11.2009 20:04 15,8 C 7,3 C 0,0 UV-I 0,0 C 55 % 89 % 0 % 1009,1 hPa 0,0 l/m 3,8 km/h (1 Bft) 0 min 6,7 km/h (2 Bft)
08.11.2009 20:06 15,8 C 7,3 C 0,0 UV-I 0,0 C 55 % 89 % 0 % 1009,1 hPa 0,0 l/m 3,4 km/h (1 Bft) 0 min 6,7 km/h (2 Bft)
08.11.2009 20:08 15,8 C 7,2 C 0,0 UV-I 0,0 C 55 % 89 % 0 % 1009,1 hPa 0,0 l/m 3,6 km/h (1 Bft) 0 min 6,0 km/h (2 Bft)
08.11.2009 20:10 15,8 C 7,2 C 0,0 UV-I 0,0 C 55 % 89 % 0 % 1009,1 hPa 0,0 l/m 3,4 km/h (1 Bft) 0 min 5,8 km/h (2 Bft)
08.11.2009 20:12 15,8 C 7,3 C 0,0 UV-I 0,0 C 55 % 90 % 0 % 1009,1 hPa 0,0 l/m 3,4 km/h (1 Bft) 0 min 8,4 km/h (2 Bft)
08.11.2009 20:14 15,8 C 7,3 C 0,0 UV-I 0,0 C 55 % 90 % 0 % 1009,2 hPa 0,0 l/m 4,1 km/h (1 Bft) 0 min 7,2 km/h (2 Bft)
08.11.2009 20:16 15,8 C 7,2 C 0,0 UV-I 0,0 C 55 % 90 % 0 % 1009,2 hPa 0,0 l/m 4,6 km/h (1 Bft) 0 min 8,2 km/h (2 Bft)
08.11.2009 20:18 15,6 C 7,2 C 0,0 UV-I 0,0 C 55 % 90 % 0 % 1009,2 hPa 0,0 l/m 4,6 km/h (1 Bft) 0 min 8,2 km/h (2 Bft)
08.11.2009 20:20 15,8 C 7,2 C 0,0 UV-I 0,0 C 55 % 90 % 0 % 1009,2 hPa 0,0 l/m 4,8 km/h (1 Bft) 0 min 6,0 km/h (2 Bft)
08.11.2009 20:22 15,8 C 7,2 C 0,0 UV-I 0,0 C 55 % 90 % 0 % 1009,2 hPa 0,0 l/m 4,6 km/h (1 Bft) 0 min 6,0 km/h (2 Bft)
08.11.2009 20:24 15,8 C 7,2 C 0,0 UV-I 0,0 C 55 % 90 % 0 % 1009,2 hPa 0,0 l/m 4,6 km/h (1 Bft) 0 min 5,1 km/h (1 Bft)
08.11.2009 20:26 15,8 C 7,2 C 0,0 UV-I 0,0 C 55 % 90 % 0 % 1009,2 hPa 0,0 l/m 4,3 km/h (1 Bft) 0 min 5,1 km/h (1 Bft)
08.11.2009 20:28 15,8 C 7,1 C 0,0 UV-I 0,0 C 55 % 90 % 0 % 1009,2 hPa 0,0 l/m 3,8 km/h (1 Bft) 0 min 7,2 km/h (2 Bft)
08.11.2009 20:30 15,8 C 7,1 C 0,0 UV-I 0,0 C 55 % 90 % 0 % 1009,2 hPa 0,0 l/m 4,1 km/h (1 Bft) 0 min 7,2 km/h (2 Bft)
08.11.2009 20:32 15,8 C 7,1 C 0,0 UV-I 0,0 C 55 % 90 % 0 % 1009,2 hPa 0,0 l/m 3,8 km/h (1 Bft) 0 min 5,1 km/h (1 Bft)
08.11.2009 20:34 15,8 C 7,1 C 0,0 UV-I 0,0 C 55 % 90 % 0 % 1009,5 hPa 0,0 l/m 4,1 km/h (1 Bft) 0 min 6,0 km/h (2 Bft)
08.11.2009 20:36 15,8 C 7,1 C 0,0 UV-I 0,0 C 55 % 90 % 0 % 1009,5 hPa 0,0 l/m 4,3 km/h (1 Bft) 0 min 6,5 km/h (2 Bft)
08.11.2009 20:38 15,8 C 7,1 C 0,0 UV-I 0,0 C 55 % 90 % 0 % 1009,5 hPa 0,0 l/m 4,8 km/h (1 Bft) 0 min 6,5 km/h (2 Bft)
08.11.2009 20:40 15,8 C 7,1 C 0,0 UV-I 0,0 C 55 % 90 % 0 % 1009,5 hPa 0,0 l/m 4,3 km/h (1 Bft) 0 min 5,8 km/h (2 Bft)
08.11.2009 20:42 15,8 C 7,0 C 0,0 UV-I 0,0 C 55 % 90 % 0 % 1009,5 hPa 0,0 l/m 4,1 km/h (1 Bft) 0 min 2,9 km/h (1 Bft)
08.11.2009 20:44 15,8 C 7,0 C 0,0 UV-I 0,0 C 55 % 90 % 0 % 1009,5 hPa 0,0 l/m 3,6 km/h (1 Bft) 0 min 2,9 km/h (1 Bft)
08.11.2009 20:46 15,8 C 7,0 C 0,0 UV-I 0,0 C 55 % 90 % 0 % 1009,5 hPa 0,0 l/m 3,1 km/h (1 Bft) 0 min 3,6 km/h (1 Bft)
08.11.2009 20:48 15,8 C 7,0 C 0,0 UV-I 0,0 C 55 % 91 % 0 % 1009,5 hPa 0,0 l/m 2,6 km/h (1 Bft) 0 min 3,6 km/h (1 Bft)
08.11.2009 20:52 15,8 C 7,0 C 0,0 UV-I 0,0 C 55 % 91 % 0 % 1009,5 hPa 0,0 l/m 3,1 km/h (1 Bft) 0 min 5,8 km/h (2 Bft)
08.11.2009 20:54 15,8 C 7,1 C 0,0 UV-I 0,0 C 55 % 91 % 0 % 1009,8 hPa 0,0 l/m 2,9 km/h (1 Bft) 0 min 5,8 km/h (2 Bft)
08.11.2009 20:56 15,8 C 7,1 C 0,0 UV-I 0,0 C 56 % 91 % 0 % 1009,8 hPa 0,0 l/m 3,6 km/h (1 Bft) 0 min 8,7 km/h (2 Bft)
08.11.2009 20:58 15,8 C 7,1 C 0,0 UV-I 0,0 C 56 % 91 % 0 % 1009,8 hPa 0,0 l/m 4,1 km/h (1 Bft) 0 min 8,9 km/h (2 Bft)
08.11.2009 21:00 15,8 C 7,1 C 0,0 UV-I 0,0 C 56 % 91 % 0 % 1009,8 hPa 0,0 l/m 4,3 km/h (1 Bft) 0 min 8,9 km/h (2 Bft)
08.11.2009 21:02 15,8 C 7,1 C 0,0 UV-I 0,0 C 55 % 91 % 0 % 1009,8 hPa 0,0 l/m 4,3 km/h (1 Bft) 0 min 6,5 km/h (2 Bft)
08.11.2009 21:04 15,8 C 7,1 C 0,0 UV-I 0,0 C 55 % 91 % 0 % 1009,8 hPa 0,0 l/m 4,1 km/h (1 Bft) 0 min 6,5 km/h (2 Bft)
08.11.2009 21:06 15,8 C 7,1 C 0,0 UV-I 0,0 C 56 % 91 % 0 % 1009,8 hPa 0,0 l/m 3,8 km/h (1 Bft) 0 min 3,8 km/h (1 Bft)
08.11.2009 21:08 15,8 C 7,1 C 0,0 UV-I 0,0 C 55 % 91 % 0 % 1009,8 hPa 0,0 l/m 3,8 km/h (1 Bft) 0 min 5,5 km/h (1 Bft)
08.11.2009 21:10 15,8 C 7,1 C 0,0 UV-I 0,0 C 55 % 91 % 0 % 1009,8 hPa 0,0 l/m 2,9 km/h (1 Bft) 0 min 5,5 km/h (1 Bft)
08.11.2009 21:12 15,8 C 7,1 C 0,0 UV-I 0,0 C 55 % 91 % 0 % 1009,8 hPa 0,0 l/m 2,9 km/h (1 Bft) 0 min 2,9 km/h (1 Bft)
08.11.2009 21:14 15,8 C 7,1 C 0,0 UV-I 0,0 C 56 % 91 % 0 % 1009,7 hPa 0,0 l/m 2,6 km/h (1 Bft) 0 min 5,5 km/h (1 Bft)
08.11.2009 21:16 15,8 C 7,1 C 0,0 UV-I 0,0 C 56 % 91 % 0 % 1009,7 hPa 0,0 l/m 2,4 km/h (1 Bft) 0 min 5,5 km/h (1 Bft)
08.11.2009 21:18 15,8 C 7,1 C 0,0 UV-I 0,0 C 56 % 91 % 0 % 1009,7 hPa 0,0 l/m 2,4 km/h (1 Bft) 0 min 2,6 km/h (1 Bft)
08.11.2009 21:20 15,8 C 7,1 C 0,0 UV-I 0,0 C 55 % 91 % 0 % 1009,7 hPa 0,0 l/m 1,9 km/h (1 Bft) 0 min 2,9 km/h (1 Bft)
08.11.2009 21:22 15,8 C 7,1 C 0,0 UV-I 0,0 C 56 % 91 % 0 % 1009,7 hPa 0,0 l/m 1,9 km/h (1 Bft) 0 min 4,1 km/h (1 Bft)
08.11.2009 21:24 15,8 C 7,1 C 0,0 UV-I 0,0 C 56 % 91 % 0 % 1009,7 hPa 0,0 l/m 1,9 km/h (1 Bft) 0 min 4,1 km/h (1 Bft)
08.11.2009 21:26 15,8 C 7,1 C 0,0 UV-I 0,0 C 56 % 91 % 0 % 1009,7 hPa 0,0 l/m 1,4 km/h (1 Bft) 0 min 0,0 km/h (0 Bft)
08.11.2009 21:28 15,8 C 7,1 C 0,0 UV-I 0,0 C 56 % 91 % 0 % 1009,7 hPa 0,0 l/m 1,0 km/h (0 Bft) 0 min 0,0 km/h (0 Bft)
08.11.2009 21:32 15,8 C 7,0 C 0,0 UV-I 0,0 C 56 % 91 % 0 % 1009,7 hPa 0,0 l/m 0,7 km/h (0 Bft) 0 min 0,0 km/h (0 Bft)
08.11.2009 21:34 15,8 C 7,1 C 0,0 UV-I 0,0 C 56 % 91 % 0 % 1009,8 hPa 0,0 l/m 0,7 km/h (0 Bft) 0 min 4,1 km/h (1 Bft)
08.11.2009 21:36 15,8 C 7,0 C 0,0 UV-I 0,0 C 56 % 91 % 0 % 1009,8 hPa 0,0 l/m 1,0 km/h (0 Bft) 0 min 4,1 km/h (1 Bft)
08.11.2009 21:38 15,8 C 7,1 C 0,0 UV-I 0,0 C 56 % 91 % 0 % 1009,8 hPa 0,0 l/m 1,2 km/h (1 Bft) 0 min 4,8 km/h (1 Bft)
08.11.2009 21:40 15,8 C 7,1 C 0,0 UV-I 0,0 C 56 % 91 % 0 % 1009,8 hPa 0,0 l/m 1,4 km/h (1 Bft) 0 min 4,8 km/h (1 Bft)
08.11.2009 21:42 15,8 C 7,0 C 0,0 UV-I 0,0 C 56 % 91 % 0 % 1009,8 hPa 0,0 l/m 1,9 km/h (1 Bft) 0 min 4,8 km/h (1 Bft)
08.11.2009 21:44 15,6 C 7,1 C 0,0 UV-I 0,0 C 56 % 91 % 0 % 1009,8 hPa 0,0 l/m 2,2 km/h (1 Bft) 0 min 4,8 km/h (1 Bft)
08.11.2009 21:46 15,6 C 7,1 C 0,0 UV-I 0,0 C 56 % 92 % 0 % 1009,8 hPa 0,0 l/m 2,2 km/h (1 Bft) 0 min 4,3 km/h (1 Bft)
08.11.2009 21:50 15,6 C 7,0 C 0,0 UV-I 0,0 C 56 % 92 % 0 % 1009,8 hPa 0,0 l/m 2,9 km/h (1 Bft) 0 min 5,1 km/h (1 Bft)
08.11.2009 21:52 15,8 C 7,0 C 0,0 UV-I 0,0 C 56 % 92 % 0 % 1009,8 hPa 0,0 l/m 2,9 km/h (1 Bft) 0 min 2,9 km/h (1 Bft)
08.11.2009 21:54 15,6 C 7,1 C 0,0 UV-I 0,0 C 56 % 92 % 0 % 1010,1 hPa 0,0 l/m 2,2 km/h (1 Bft) 0 min 2,9 km/h (1 Bft)
08.11.2009 21:56 15,6 C 7,1 C 0,0 UV-I 0,0 C 56 % 92 % 0 % 1010,1 hPa 0,0 l/m 1,9 km/h (1 Bft) 0 min 2,6 km/h (1 Bft)
08.11.2009 21:58 15,6 C 7,1 C 0,0 UV-I 0,0 C 56 % 92 % 0 % 1010,1 hPa 0,0 l/m 1,7 km/h (1 Bft) 0 min 0,0 km/h (0 Bft)
08.11.2009 22:00 15,6 C 7,0 C 0,0 UV-I 0,0 C 56 % 92 % 0 % 1010,1 hPa 0,0 l/m 1,0 km/h (0 Bft) 0 min 0,0 km/h (0 Bft)
08.11.2009 22:02 15,6 C 6,9 C 0,0 UV-I 0,0 C 56 % 92 % 0 % 1010,1 hPa 0,0 l/m 1,0 km/h (0 Bft) 0 min 4,8 km/h (1 Bft)
08.11.2009 22:04 15,6 C 6,9 C 0,0 UV-I 0,0 C 56 % 92 % 0 % 1010,1 hPa 0,0 l/m 1,2 km/h (1 Bft) 0 min 4,8 km/h (1 Bft)
08.11.2009 22:06 15,6 C 6,9 C 0,0 UV-I 0,0 C 56 % 92 % 0 % 1010,1 hPa 0,0 l/m 1,7 km/h (1 Bft) 0 min 5,5 km/h (1 Bft)
08.11.2009 22:10 15,6 C 7,0 C 0,0 UV-I 0,0 C 56 % 92 % 0 % 1010,1 hPa 0,0 l/m 2,4 km/h (1 Bft) 0 min 5,5 km/h (1 Bft)
08.11.2009 22:12 15,6 C 7,0 C 0,0 UV-I 0,0 C 56 % 92 % 0 % 1010,1 hPa 0,0 l/m 2,6 km/h (1 Bft) 0 min 4,6 km/h (1 Bft)
08.11.2009 22:14 15,6 C 6,9 C 0,0 UV-I 0,0 C 56 % 92 % 0 % 1010,1 hPa 0,0 l/m 2,2 km/h (1 Bft) 0 min 2,4 km/h (1 Bft)
08.11.2009 22:16 15,6 C 6,9 C 0,0 UV-I 0,0 C 56 % 92 % 0 % 1010,1 hPa 0,0 l/m 2,4 km/h (1 Bft) 0 min 4,3 km/h (1 Bft)
08.11.2009 22:18 15,6 C 7,0 C 0,0 UV-I 0,0 C 56 % 92 % 0 % 1010,1 hPa 0,0 l/m 2,2 km/h (1 Bft) 0 min 4,3 km/h (1 Bft)
08.11.2009 22:20 15,6 C 7,0 C 0,0 UV-I 0,0 C 56 % 92 % 0 % 1010,1 hPa 0,0 l/m 2,6 km/h (1 Bft) 0 min 3,8 km/h (1 Bft)
08.11.2009 22:22 15,6 C 6,9 C 0,0 UV-I 0,0 C 56 % 92 % 0 % 1010,1 hPa 0,0 l/m 2,6 km/h (1 Bft) 0 min 4,3 km/h (1 Bft)
08.11.2009 22:24 15,6 C 7,0 C 0,0 UV-I 0,0 C 56 % 92 % 0 % 1010,1 hPa 0,0 l/m 2,9 km/h (1 Bft) 0 min 4,3 km/h (1 Bft)
08.11.2009 22:30 15,6 C 7,0 C 0,0 UV-I 0,0 C 56 % 92 % 0 % 1010,1 hPa 0,0 l/m 3,4 km/h (1 Bft) 0 min 6,5 km/h (2 Bft)
08.11.2009 22:32 15,8 C 7,0 C 0,0 UV-I 0,0 C 56 % 92 % 0 % 1010,1 hPa 0,0 l/m 3,1 km/h (1 Bft) 0 min 0,0 km/h (0 Bft)
08.11.2009 22:34 15,6 C 7,0 C 0,0 UV-I 0,0 C 56 % 92 % 0 % 1010,2 hPa 0,0 l/m 3,1 km/h (1 Bft) 0 min 3,1 km/h (1 Bft)
08.11.2009 22:36 15,8 C 7,1 C 0,0 UV-I 0,0 C 56 % 92 % 0 % 1010,2 hPa 0,0 l/m 2,9 km/h (1 Bft) 0 min 6,7 km/h (2 Bft)
08.11.2009 22:38 15,8 C 7,1 C 0,0 UV-I 0,0 C 56 % 92 % 0 % 1010,2 hPa 0,0 l/m 2,9 km/h (1 Bft) 0 min 6,7 km/h (2 Bft)
08.11.2009 22:40 15,8 C 7,1 C 0,0 UV-I 0,0 C 56 % 92 % 0 % 1010,2 hPa 0,0 l/m 2,9 km/h (1 Bft) 0 min 6,5 km/h (2 Bft)
08.11.2009 22:42 15,6 C 7,1 C 0,0 UV-I 0,0 C 56 % 92 % 0 % 1010,2 hPa 0,0 l/m 2,6 km/h (1 Bft) 0 min 6,3 km/h (2 Bft)
08.11.2009 22:44 15,8 C 7,1 C 0,0 UV-I 0,0 C 56 % 92 % 0 % 1010,2 hPa 0,0 l/m 3,1 km/h (1 Bft) 0 min 2,9 km/h (1 Bft)
08.11.2009 22:46 15,8 C 7,1 C 0,0 UV-I 0,0 C 56 % 92 % 0 % 1010,2 hPa 0,0 l/m 3,1 km/h (1 Bft) 0 min 3,4 km/h (1 Bft)
08.11.2009 22:50 15,8 C 7,1 C 0,0 UV-I 0,0 C 56 % 93 % 0 % 1010,2 hPa 0,0 l/m 2,4 km/h (1 Bft) 0 min 3,4 km/h (1 Bft)
08.11.2009 22:52 15,8 C 7,1 C 0,0 UV-I 0,0 C 56 % 93 % 0 % 1010,2 hPa 0,0 l/m 2,4 km/h (1 Bft) 0 min 3,4 km/h (1 Bft)
08.11.2009 22:54 15,8 C 7,1 C 0,0 UV-I 0,0 C 56 % 93 % 0 % 1010,5 hPa 0,0 l/m 2,4 km/h (1 Bft) 0 min 4,8 km/h (1 Bft)
08.11.2009 22:56 15,8 C 7,1 C 0,0 UV-I 0,0 C 56 % 93 % 0 % 1010,5 hPa 0,0 l/m 2,6 km/h (1 Bft) 0 min 4,8 km/h (1 Bft)
08.11.2009 22:58 15,8 C 7,1 C 0,0 UV-I 0,0 C 56 % 93 % 0 % 1010,5 hPa 0,0 l/m 2,9 km/h (1 Bft) 0 min 4,1 km/h (1 Bft)
08.11.2009 23:00 15,8 C 7,1 C 0,0 UV-I 0,0 C 56 % 93 % 0 % 1010,5 hPa 0,0 l/m 3,6 km/h (1 Bft) 0 min 7,5 km/h (2 Bft)
08.11.2009 23:02 15,8 C 7,1 C 0,0 UV-I 0,0 C 56 % 93 % 0 % 1010,5 hPa 0,0 l/m 3,8 km/h (1 Bft) 0 min 7,5 km/h (2 Bft)
08.11.2009 23:04 15,8 C 7,1 C 0,0 UV-I 0,0 C 56 % 93 % 0 % 1010,5 hPa 0,0 l/m 4,1 km/h (1 Bft) 0 min 5,3 km/h (1 Bft)
08.11.2009 23:06 15,6 C 7,1 C 0,0 UV-I 0,0 C 56 % 93 % 0 % 1010,5 hPa 0,0 l/m 4,1 km/h (1 Bft) 0 min 6,0 km/h (2 Bft)
08.11.2009 23:08 15,8 C 7,0 C 0,0 UV-I 0,0 C 56 % 92 % 0 % 1010,5 hPa 0,0 l/m 4,1 km/h (1 Bft) 0 min 6,7 km/h (2 Bft)
08.11.2009 23:10 15,8 C 7,0 C 0,0 UV-I 0,0 C 56 % 92 % 0 % 1010,5 hPa 0,0 l/m 3,8 km/h (1 Bft) 0 min 6,7 km/h (2 Bft)
08.11.2009 23:12 15,8 C 7,1 C 0,0 UV-I 0,0 C 56 % 93 % 0 % 1010,5 hPa 0,0 l/m 3,8 km/h (1 Bft) 0 min 6,0 km/h (2 Bft)
08.11.2009 23:16 15,8 C 7,1 C 0,0 UV-I 0,0 C 56 % 93 % 0 % 1010,6 hPa 0,0 l/m 3,8 km/h (1 Bft) 0 min 7,5 km/h (2 Bft)
08.11.2009 23:18 15,8 C 7,1 C 0,0 UV-I 0,0 C 56 % 93 % 0 % 1010,6 hPa 0,0 l/m 3,8 km/h (1 Bft) 0 min 7,5 km/h (2 Bft)
08.11.2009 23:20 15,8 C 7,1 C 0,0 UV-I 0,0 C 56 % 93 % 0 % 1010,6 hPa 0,0 l/m 3,8 km/h (1 Bft) 0 min 5,8 km/h (2 Bft)
08.11.2009 23:22 15,8 C 7,1 C 0,0 UV-I 0,0 C 56 % 93 % 0 % 1010,6 hPa 0,0 l/m 4,1 km/h (1 Bft) 0 min 5,1 km/h (1 Bft)
08.11.2009 23:28 15,8 C 7,1 C 0,0 UV-I 0,0 C 56 % 93 % 0 % 1010,6 hPa 0,0 l/m 3,8 km/h (1 Bft) 0 min 7,2 km/h (2 Bft)
08.11.2009 23:30 15,8 C 7,1 C 0,0 UV-I 0,0 C 56 % 93 % 0 % 1010,6 hPa 0,0 l/m 3,8 km/h (1 Bft) 0 min 4,8 km/h (1 Bft)
08.11.2009 23:32 15,8 C 7,1 C 0,0 UV-I 0,0 C 56 % 93 % 0 % 1010,6 hPa 0,0 l/m 4,1 km/h (1 Bft) 0 min 6,3 km/h (2 Bft)
08.11.2009 23:34 15,8 C 7,1 C 0,0 UV-I 0,0 C 56 % 93 % 0 % 1010,6 hPa 0,0 l/m 4,3 km/h (1 Bft) 0 min 6,3 km/h (2 Bft)
08.11.2009 23:36 15,8 C 7,1 C 0,0 UV-I 0,0 C 56 % 93 % 0 % 1010,6 hPa 0,0 l/m 4,1 km/h (1 Bft) 0 min 6,3 km/h (2 Bft)
08.11.2009 23:38 15,8 C 7,1 C 0,0 UV-I 0,0 C 56 % 93 % 0 % 1010,6 hPa 0,0 l/m 3,8 km/h (1 Bft) 0 min 5,5 km/h (1 Bft)
08.11.2009 23:40 15,8 C 7,1 C 0,0 UV-I 0,0 C 56 % 93 % 0 % 1010,6 hPa 0,0 l/m 4,3 km/h (1 Bft) 0 min 8,7 km/h (2 Bft)
08.11.2009 23:46 15,8 C 7,2 C 0,0 UV-I 0,0 C 56 % 93 % 0 % 1010,6 hPa 0,0 l/m 5,1 km/h (1 Bft) 0 min 7,5 km/h (2 Bft)
08.11.2009 23:48 15,8 C 7,2 C 0,0 UV-I 0,0 C 56 % 93 % 0 % 1010,6 hPa 0,0 l/m 5,1 km/h (1 Bft) 0 min 7,9 km/h (2 Bft)
08.11.2009 23:50 15,8 C 7,2 C 0,0 UV-I 0,0 C 56 % 92 % 0 % 1010,6 hPa 0,0 l/m 5,1 km/h (1 Bft) 0 min 7,9 km/h (2 Bft)
08.11.2009 23:52 15,8 C 7,3 C 0,0 UV-I 0,0 C 56 % 93 % 0 % 1010,6 hPa 0,0 l/m 5,1 km/h (1 Bft) 0 min 12,0 km/h (2 Bft)
08.11.2009 23:54 15,8 C 7,2 C 0,0 UV-I 0,0 C 56 % 93 % 0 % 1010,8 hPa 0,0 l/m 5,3 km/h (1 Bft) 0 min 10,1 km/h (2 Bft)
08.11.2009 23:56 15,8 C 7,2 C 0,0 UV-I 0,0 C 56 % 92 % 0 % 1010,8 hPa 0,0 l/m 5,3 km/h (1 Bft) 0 min 10,1 km/h (2 Bft)
08.11.2009 23:58 15,8 C 7,2 C 0,0 UV-I 0,0 C 56 % 92 % 0 % 1010,8 hPa 0,0 l/m 5,3 km/h (1 Bft) 0 min 9,6 km/h (2 Bft)
_ Min-Zeit 07:12 08:12 00:00 00:00 14:52 14:54 00:00 00:00 - 00:30 - 00:12
Minimum _ 13,1 C 1,8 C 0,0 UV-I 0,0 C 52 % 72 % 0 % 1000,1 hPa - 0,0 km/h (0 Bft) - 0,0 km/h (0 Bft)
_ Max-Zeit 14:56 14:02 13:54 11:12 00:00 10:04 09:26 23:54 00:00 19:32 09:16 23:52
Maximum _ 16,9 C 12,5 C 2,1 UV-I 10,3 C 60 % 97 % 100 % 1010,8 hPa 0,0 l/m 5,3 km/h
S-SW (1 Bft)
2 min 12,0 km/h
SW (2 Bft)
Durchschnitt _ 14,8 C 6,6 C 0,3 UV-I 1,7 C 55 % 89 % 25 % 1005,2 hPa #0,0 l/m 1,3 km/h (1 Bft) #5:38 h 2,4 km/h (1 Bft)
© 2012 W. Hausmann